Wetterdaten: Mittwoch, 28.09.2016
Datum Zeit Temp. A. Feuchte A. Luftdruck Regen Wind Richtung Richtung Sonnenschein ET UV Solar Taupunkt Windchill Windben Empfang
28.09.2016 00:00 11,8 C 87 % 1027,3 hPa 0,0 l/m 6,2 km/h (2 Bft) S 188 0 min 0,000 mm 0,0 UV-I 0 W/m 9,7 C 11,8 C 9,7 km/h (2 Bft) 100,00 %
28.09.2016 00:02 11,8 C 87 % 1027,3 hPa 0,0 l/m 4,6 km/h (1 Bft) S-SW 208 0 min 0,000 mm 0,0 UV-I 0 W/m 9,7 C 11,8 C 8,0 km/h (2 Bft) 97,14 %
28.09.2016 00:04 11,7 C 87 % 1027,4 hPa 0,0 l/m 6,0 km/h (2 Bft) SW 215 0 min 0,000 mm 0,0 UV-I 0 W/m 9,6 C 11,7 C 8,0 km/h (2 Bft) 100,00 %
28.09.2016 00:06 11,7 C 87 % 1027,4 hPa 0,0 l/m 7,0 km/h (2 Bft) SW 215 0 min 0,000 mm 0,0 UV-I 0 W/m 9,6 C 11,3 C 9,7 km/h (2 Bft) 100,00 %
28.09.2016 00:08 11,7 C 87 % 1027,4 hPa 0,0 l/m 7,8 km/h (2 Bft) S 173 0 min 0,000 mm 0,0 UV-I 0 W/m 9,6 C 10,8 C 9,7 km/h (2 Bft) 97,56 %
28.09.2016 00:10 11,7 C 87 % 1027,4 hPa 0,0 l/m 6,8 km/h (2 Bft) S 183 0 min 0,000 mm 0,0 UV-I 0 W/m 9,6 C 11,4 C 9,7 km/h (2 Bft) 100,00 %
28.09.2016 00:12 11,6 C 87 % 1027,4 hPa 0,0 l/m 6,4 km/h (2 Bft) S 175 0 min 0,000 mm 0,0 UV-I 0 W/m 9,5 C 11,6 C 9,7 km/h (2 Bft) 100,00 %
28.09.2016 00:14 11,7 C 87 % 1027,4 hPa 0,0 l/m 6,0 km/h (2 Bft) S 176 0 min 0,000 mm 0,0 UV-I 0 W/m 9,6 C 11,7 C 9,7 km/h (2 Bft) 100,00 %
28.09.2016 00:16 11,7 C 87 % 1027,4 hPa 0,0 l/m 6,0 km/h (2 Bft) S 186 0 min 0,000 mm 0,0 UV-I 0 W/m 9,6 C 11,7 C 11,3 km/h (2 Bft) 97,73 %
28.09.2016 00:18 11,7 C 87 % 1027,4 hPa 0,0 l/m 7,9 km/h (2 Bft) S-SW 196 0 min 0,000 mm 0,0 UV-I 0 W/m 9,6 C 10,7 C 12,9 km/h (3 Bft) 100,00 %
28.09.2016 00:20 11,8 C 87 % 1027,4 hPa 0,0 l/m 7,7 km/h (2 Bft) S-SW 194 0 min 0,000 mm 0,0 UV-I 0 W/m 9,7 C 10,9 C 11,3 km/h (2 Bft) 100,00 %
28.09.2016 00:22 11,8 C 87 % 1027,4 hPa 0,0 l/m 8,5 km/h (2 Bft) S 180 0 min 0,000 mm 0,0 UV-I 0 W/m 9,7 C 10,4 C 12,9 km/h (3 Bft) 97,56 %
28.09.2016 00:24 11,8 C 86 % 1027,4 hPa 0,0 l/m 6,1 km/h (2 Bft) S 189 0 min 0,000 mm 0,0 UV-I 0 W/m 9,5 C 11,8 C 11,3 km/h (2 Bft) 100,00 %
28.09.2016 00:26 11,8 C 86 % 1027,4 hPa 0,0 l/m 6,4 km/h (2 Bft) S-SW 207 0 min 0,000 mm 0,0 UV-I 0 W/m 9,5 C 11,8 C 9,7 km/h (2 Bft) 100,00 %
28.09.2016 00:28 11,8 C 86 % 1027,4 hPa 0,0 l/m 6,6 km/h (2 Bft) S-SW 194 0 min 0,000 mm 0,0 UV-I 0 W/m 9,5 C 11,7 C 8,0 km/h (2 Bft) 100,00 %
28.09.2016 00:30 11,7 C 86 % 1027,4 hPa 0,0 l/m 5,5 km/h (1 Bft) S-SW 195 0 min 0,000 mm 0,0 UV-I 0 W/m 9,4 C 11,7 C 8,0 km/h (2 Bft) 100,00 %
28.09.2016 00:32 11,6 C 87 % 1027,3 hPa 0,0 l/m 6,4 km/h (2 Bft) S 178 0 min 0,000 mm 0,0 UV-I 0 W/m 9,5 C 11,6 C 8,0 km/h (2 Bft) 98,11 %
28.09.2016 00:34 11,6 C 87 % 1027,3 hPa 0,0 l/m 6,4 km/h (2 Bft) S 184 0 min 0,000 mm 0,0 UV-I 0 W/m 9,5 C 11,6 C 9,7 km/h (2 Bft) 98,00 %
28.09.2016 00:36 11,6 C 87 % 1027,3 hPa 0,0 l/m 5,6 km/h (1 Bft) S 183 0 min 0,000 mm 0,0 UV-I 0 W/m 9,5 C 11,6 C 8,0 km/h (2 Bft) 100,00 %
28.09.2016 00:38 11,5 C 87 % 1027,3 hPa 0,0 l/m 4,7 km/h (1 Bft) S-SW 208 0 min 0,000 mm 0,0 UV-I 0 W/m 9,4 C 11,5 C 6,4 km/h (2 Bft) 100,00 %
28.09.2016 00:40 11,4 C 87 % 1027,3 hPa 0,0 l/m 3,5 km/h (1 Bft) S-SW 208 0 min 0,000 mm 0,0 UV-I 0 W/m 9,3 C 11,4 C 6,4 km/h (2 Bft) 97,87 %
28.09.2016 00:42 11,4 C 87 % 1027,3 hPa 0,0 l/m 3,0 km/h (1 Bft) S-SW 208 0 min 0,000 mm 0,0 UV-I 0 W/m 9,3 C 11,4 C 4,8 km/h (1 Bft) 98,00 %
28.09.2016 00:44 11,4 C 87 % 1027,3 hPa 0,0 l/m 2,6 km/h (1 Bft) S-SW 208 0 min 0,000 mm 0,0 UV-I 0 W/m 9,3 C 11,4 C 4,8 km/h (1 Bft) 97,87 %
28.09.2016 00:46 11,4 C 87 % 1027,3 hPa 0,0 l/m 3,5 km/h (1 Bft) S-SW 208 0 min 0,000 mm 0,0 UV-I 0 W/m 9,3 C 11,4 C 4,8 km/h (1 Bft) 97,87 %
28.09.2016 00:48 11,4 C 87 % 1027,4 hPa 0,0 l/m 4,5 km/h (1 Bft) S-SW 192 0 min 0,000 mm 0,0 UV-I 0 W/m 9,3 C 11,4 C 8,0 km/h (2 Bft) 100,00 %
28.09.2016 00:50 11,4 C 87 % 1027,4 hPa 0,0 l/m 3,5 km/h (1 Bft) S-SW 192 0 min 0,000 mm 0,0 UV-I 0 W/m 9,3 C 11,4 C 4,8 km/h (1 Bft) 97,96 %
28.09.2016 00:52 11,4 C 87 % 1027,4 hPa 0,0 l/m 4,1 km/h (1 Bft) S-SW 208 0 min 0,000 mm 0,0 UV-I 0 W/m 9,3 C 11,4 C 6,4 km/h (2 Bft) 94,34 %
28.09.2016 00:54 11,4 C 87 % 1027,3 hPa 0,0 l/m 1,7 km/h (1 Bft) S-SW 208 0 min 0,000 mm 0,0 UV-I 0 W/m 9,3 C 11,4 C 4,8 km/h (1 Bft) 100,00 %
28.09.2016 00:56 11,2 C 88 % 1027,2 hPa 0,0 l/m 2,3 km/h (1 Bft) S-SW 208 0 min 0,000 mm 0,0 UV-I 0 W/m 9,3 C 11,2 C 4,8 km/h (1 Bft) 95,74 %
28.09.2016 00:58 11,1 C 88 % 1027,3 hPa 0,0 l/m 2,3 km/h (1 Bft) S-SW 208 0 min 0,000 mm 0,0 UV-I 0 W/m 9,2 C 11,1 C 3,2 km/h (1 Bft) 96,00 %
28.09.2016 01:00 10,9 C 89 % 1027,3 hPa 0,0 l/m 2,4 km/h (1 Bft) S-SW 208 0 min 0,000 mm 0,0 UV-I 0 W/m 9,2 C 10,9 C 3,2 km/h (1 Bft) 98,00 %
28.09.2016 01:02 10,9 C 89 % 1027,2 hPa 0,0 l/m 1,8 km/h (1 Bft) S-SW 208 0 min 0,000 mm 0,0 UV-I 0 W/m 9,2 C 10,9 C 3,2 km/h (1 Bft) 96,15 %
28.09.2016 01:04 10,8 C 89 % 1027,2 hPa 0,0 l/m 2,2 km/h (1 Bft) S-SW 208 0 min 0,000 mm 0,0 UV-I 0 W/m 9,1 C 10,8 C 3,2 km/h (1 Bft) 98,53 %
28.09.2016 01:06 10,7 C 89 % 1027,2 hPa 0,0 l/m 2,5 km/h (1 Bft) S-SW 208 0 min 0,000 mm 0,0 UV-I 0 W/m 9,0 C 10,7 C 3,2 km/h (1 Bft) 97,87 %
28.09.2016 01:08 10,7 C 89 % 1027,2 hPa 0,0 l/m 1,4 km/h (1 Bft) S-SW 207 0 min 0,000 mm 0,0 UV-I 0 W/m 9,0 C 10,7 C 3,2 km/h (1 Bft) 97,87 %
28.09.2016 01:10 10,6 C 89 % 1027,1 hPa 0,0 l/m 1,5 km/h (1 Bft) S-SW 197 0 min 0,000 mm 0,0 UV-I 0 W/m 8,9 C 10,6 C 4,8 km/h (1 Bft) 93,62 %
28.09.2016 01:12 10,4 C 89 % 1027,2 hPa 0,0 l/m 2,3 km/h (1 Bft) S 182 0 min 0,000 mm 0,0 UV-I 0 W/m 8,7 C 10,4 C 4,8 km/h (1 Bft) 98,00 %
28.09.2016 01:14 10,4 C 90 % 1027,2 hPa 0,0 l/m 4,2 km/h (1 Bft) S 182 0 min 0,000 mm 0,0 UV-I 0 W/m 8,8 C 10,4 C 6,4 km/h (2 Bft) 97,87 %
28.09.2016 01:16 10,5 C 90 % 1027,2 hPa 0,0 l/m 3,8 km/h (1 Bft) S-SW 196 0 min 0,000 mm 0,0 UV-I 0 W/m 8,9 C 10,5 C 6,4 km/h (2 Bft) 95,74 %
28.09.2016 01:18 10,6 C 90 % 1027,3 hPa 0,0 l/m 5,1 km/h (1 Bft) S-SW 200 0 min 0,000 mm 0,0 UV-I 0 W/m 9,0 C 10,6 C 6,4 km/h (2 Bft) 97,37 %
28.09.2016 01:20 10,7 C 90 % 1027,3 hPa 0,0 l/m 4,7 km/h (1 Bft) S-SW 201 0 min 0,000 mm 0,0 UV-I 0 W/m 9,1 C 10,7 C 6,4 km/h (2 Bft) 98,11 %
28.09.2016 01:22 10,8 C 90 % 1027,3 hPa 0,0 l/m 3,7 km/h (1 Bft) S 182 0 min 0,000 mm 0,0 UV-I 0 W/m 9,2 C 10,8 C 4,8 km/h (1 Bft) 97,37 %
28.09.2016 01:24 10,9 C 89 % 1027,2 hPa 0,0 l/m 2,8 km/h (1 Bft) S 178 0 min 0,000 mm 0,0 UV-I 0 W/m 9,2 C 10,9 C 4,8 km/h (1 Bft) 98,11 %
28.09.2016 01:26 10,8 C 88 % 1027,3 hPa 0,0 l/m 2,9 km/h (1 Bft) S 178 0 min 0,000 mm 0,0 UV-I 0 W/m 8,9 C 10,8 C 4,8 km/h (1 Bft) 100,00 %
28.09.2016 01:28 10,6 C 88 % 1027,3 hPa 0,0 l/m 1,9 km/h (1 Bft) S 178 0 min 0,000 mm 0,0 UV-I 0 W/m 8,7 C 10,6 C 3,2 km/h (1 Bft) 100,00 %
28.09.2016 01:30 10,4 C 89 % 1027,3 hPa 0,0 l/m 0,8 km/h (0 Bft) S 178 0 min 0,000 mm 0,0 UV-I 0 W/m 8,7 C 10,4 C 3,2 km/h (1 Bft) 100,00 %
28.09.2016 01:32 10,3 C 89 % 1027,3 hPa 0,0 l/m 0,4 km/h (0 Bft) S 178 0 min 0,000 mm 0,0 UV-I 0 W/m 8,6 C 10,3 C 1,6 km/h (1 Bft) 97,44 %
28.09.2016 01:34 10,3 C 90 % 1027,3 hPa 0,0 l/m 0,2 km/h (0 Bft) S 178 0 min 0,000 mm 0,0 UV-I 0 W/m 8,7 C 10,3 C 1,6 km/h (1 Bft) 100,00 %
28.09.2016 01:36 10,3 C 90 % 1027,3 hPa 0,0 l/m 0,1 km/h (0 Bft) S 178 0 min 0,000 mm 0,0 UV-I 0 W/m 8,7 C 10,3 C 1,6 km/h (1 Bft) 96,23 %
28.09.2016 01:38 10,2 C 90 % 1027,4 hPa 0,0 l/m 0,0 km/h (0 Bft) S 178 0 min 0,000 mm 0,0 UV-I 0 W/m 8,6 C 10,2 C 1,6 km/h (1 Bft) 100,00 %
28.09.2016 01:40 10,2 C 90 % 1027,4 hPa 0,0 l/m 0,0 km/h (0 Bft) S 178 0 min 0,000 mm 0,0 UV-I 0 W/m 8,6 C 10,2 C 0,0 km/h (0 Bft) 100,00 %
28.09.2016 01:42 10,1 C 90 % 1027,4 hPa 0,0 l/m 0,4 km/h (0 Bft) S 178 0 min 0,000 mm 0,0 UV-I 0 W/m 8,5 C 10,1 C 1,6 km/h (1 Bft) 100,00 %
28.09.2016 01:44 10,0 C 90 % 1027,4 hPa 0,0 l/m 2,2 km/h (1 Bft) S 178 0 min 0,000 mm 0,0 UV-I 0 W/m 8,4 C 10,0 C 3,2 km/h (1 Bft) 100,00 %
28.09.2016 01:46 9,9 C 91 % 1027,4 hPa 0,0 l/m 3,0 km/h (1 Bft) S 178 0 min 0,000 mm 0,0 UV-I 0 W/m 8,5 C 9,9 C 4,8 km/h (1 Bft) 100,00 %
28.09.2016 01:48 9,8 C 91 % 1027,4 hPa 0,0 l/m 5,0 km/h (1 Bft) S-SO 167 0 min 0,000 mm 0,0 UV-I 0 W/m 8,4 C 9,8 C 6,4 km/h (2 Bft) 100,00 %
28.09.2016 01:50 9,8 C 91 % 1027,4 hPa 0,0 l/m 4,8 km/h (1 Bft) S-SO 167 0 min 0,000 mm 0,0 UV-I 0 W/m 8,4 C 9,8 C 6,4 km/h (2 Bft) 100,00 %
28.09.2016 01:52 9,7 C 91 % 1027,4 hPa 0,0 l/m 4,3 km/h (1 Bft) S-SO 167 0 min 0,000 mm 0,0 UV-I 0 W/m 8,3 C 9,7 C 6,4 km/h (2 Bft) 100,00 %
28.09.2016 01:54 9,6 C 91 % 1027,4 hPa 0,0 l/m 4,3 km/h (1 Bft) S-SO 167 0 min 0,000 mm 0,0 UV-I 0 W/m 8,2 C 9,6 C 6,4 km/h (2 Bft) 100,00 %
28.09.2016 01:56 9,5 C 92 % 1027,5 hPa 0,0 l/m 4,5 km/h (1 Bft) S-SO 164 0 min 0,000 mm 0,0 UV-I 0 W/m 8,3 C 9,5 C 6,4 km/h (2 Bft) 100,00 %
28.09.2016 01:58 9,5 C 92 % 1027,4 hPa 0,0 l/m 2,8 km/h (1 Bft) S-SO 164 0 min 0,000 mm 0,0 UV-I 0 W/m 8,3 C 9,5 C 6,4 km/h (2 Bft) 100,00 %
28.09.2016 02:00 9,4 C 92 % 1027,4 hPa 0,0 l/m 4,0 km/h (1 Bft) S-SO 164 0 min 0,000 mm 0,0 UV-I 0 W/m 8,2 C 9,4 C 6,4 km/h (2 Bft) 100,00 %
28.09.2016 02:02 9,3 C 92 % 1027,4 hPa 0,0 l/m 4,0 km/h (1 Bft) S-SO 164 0 min 0,000 mm 0,0 UV-I 0 W/m 8,1 C 9,3 C 6,4 km/h (2 Bft) 97,22 %
28.09.2016 02:04 9,3 C 92 % 1027,4 hPa 0,0 l/m 2,1 km/h (1 Bft) S-SO 164 0 min 0,000 mm 0,0 UV-I 0 W/m 8,1 C 9,3 C 3,2 km/h (1 Bft) 100,00 %
28.09.2016 02:06 9,3 C 93 % 1027,4 hPa 0,0 l/m 2,5 km/h (1 Bft) S-SO 164 0 min 0,000 mm 0,0 UV-I 0 W/m 8,2 C 9,3 C 3,2 km/h (1 Bft) 100,00 %
28.09.2016 02:08 9,3 C 93 % 1027,4 hPa 0,0 l/m 3,7 km/h (1 Bft) S-SO 164 0 min 0,000 mm 0,0 UV-I 0 W/m 8,2 C 9,3 C 6,4 km/h (2 Bft) 97,92 %
28.09.2016 02:10 9,2 C 93 % 1027,4 hPa 0,0 l/m 2,9 km/h (1 Bft) S-SO 164 0 min 0,000 mm 0,0 UV-I 0 W/m 8,1 C 9,2 C 3,2 km/h (1 Bft) 100,00 %
28.09.2016 02:12 9,2 C 93 % 1027,4 hPa 0,0 l/m 2,1 km/h (1 Bft) S-SO 164 0 min 0,000 mm 0,0 UV-I 0 W/m 8,1 C 9,2 C 3,2 km/h (1 Bft) 100,00 %
28.09.2016 02:14 9,2 C 93 % 1027,4 hPa 0,0 l/m 1,8 km/h (1 Bft) S-SO 164 0 min 0,000 mm 0,0 UV-I 0 W/m 8,1 C 9,2 C 3,2 km/h (1 Bft) 100,00 %
28.09.2016 02:16 9,1 C 93 % 1027,4 hPa 0,0 l/m 0,2 km/h (0 Bft) S-SO 164 0 min 0,000 mm 0,0 UV-I 0 W/m 8,0 C 9,1 C 1,6 km/h (1 Bft) 100,00 %
28.09.2016 02:18 9,1 C 93 % 1027,4 hPa 0,0 l/m 0,0 km/h (0 Bft) S-SO 164 0 min 0,000 mm 0,0 UV-I 0 W/m 8,0 C 9,1 C 0,0 km/h (0 Bft) 100,00 %
28.09.2016 02:20 9,2 C 93 % 1027,4 hPa 0,0 l/m 0,0 km/h (0 Bft) S-SO 164 0 min 0,000 mm 0,0 UV-I 0 W/m 8,1 C 9,2 C 0,0 km/h (0 Bft) 100,00 %
28.09.2016 02:22 9,2 C 93 % 1027,4 hPa 0,0 l/m 0,0 km/h (0 Bft) S-SO 164 0 min 0,000 mm 0,0 UV-I 0 W/m 8,1 C 9,2 C 1,6 km/h (1 Bft) 100,00 %
28.09.2016 02:24 9,2 C 93 % 1027,4 hPa 0,0 l/m 0,9 km/h (0 Bft) S-SO 164 0 min 0,000 mm 0,0 UV-I 0 W/m 8,1 C 9,2 C 1,6 km/h (1 Bft) 98,11 %
28.09.2016 02:26 9,2 C 93 % 1027,4 hPa 0,0 l/m 1,5 km/h (1 Bft) S-SO 164 0 min 0,000 mm 0,0 UV-I 0 W/m 8,1 C 9,2 C 3,2 km/h (1 Bft) 100,00 %
28.09.2016 02:28 9,1 C 93 % 1027,5 hPa 0,0 l/m 1,4 km/h (1 Bft) S-SO 164 0 min 0,000 mm 0,0 UV-I 0 W/m 8,0 C 9,1 C 3,2 km/h (1 Bft) 100,00 %
28.09.2016 02:30 9,0 C 93 % 1027,5 hPa 0,0 l/m 0,6 km/h (0 Bft) S-SO 164 0 min 0,000 mm 0,0 UV-I 0 W/m 7,9 C 9,0 C 1,6 km/h (1 Bft) 100,00 %
28.09.2016 02:32 9,0 C 93 % 1027,6 hPa 0,0 l/m 0,0 km/h (0 Bft) S-SO 164 0 min 0,000 mm 0,0 UV-I 0 W/m 7,9 C 9,0 C 0,0 km/h (0 Bft) 100,00 %
28.09.2016 02:34 9,0 C 93 % 1027,6 hPa 0,0 l/m 0,0 km/h (0 Bft) S-SO 164 0 min 0,000 mm 0,0 UV-I 0 W/m 7,9 C 9,0 C 0,0 km/h (0 Bft) 98,00 %
28.09.2016 02:36 8,9 C 93 % 1027,6 hPa 0,0 l/m 0,0 km/h (0 Bft) S-SO 164 0 min 0,000 mm 0,0 UV-I 0 W/m 7,8 C 8,9 C 0,0 km/h (0 Bft) 100,00 %
28.09.2016 02:38 8,9 C 93 % 1027,6 hPa 0,0 l/m 1,4 km/h (1 Bft) S-SO 164 0 min 0,000 mm 0,0 UV-I 0 W/m 7,8 C 8,9 C 3,2 km/h (1 Bft) 100,00 %
28.09.2016 02:40 8,8 C 93 % 1027,6 hPa 0,0 l/m 2,5 km/h (1 Bft) S-SO 164 0 min 0,000 mm 0,0 UV-I 0 W/m 7,7 C 8,8 C 3,2 km/h (1 Bft) 98,00 %
28.09.2016 02:42 8,8 C 93 % 1027,7 hPa 0,0 l/m 0,8 km/h (0 Bft) S-SO 164 0 min 0,000 mm 0,0 UV-I 0 W/m 7,7 C 8,8 C 1,6 km/h (1 Bft) 95,74 %
28.09.2016 02:44 8,7 C 93 % 1027,8 hPa 0,0 l/m 0,0 km/h (0 Bft) S-SO 164 0 min 0,000 mm 0,0 UV-I 0 W/m 7,6 C 8,7 C 0,0 km/h (0 Bft) 97,87 %
28.09.2016 02:46 8,7 C 94 % 1027,7 hPa 0,0 l/m 0,0 km/h (0 Bft) S-SO 164 0 min 0,000 mm 0,0 UV-I 0 W/m 7,8 C 8,7 C 0,0 km/h (0 Bft) 100,00 %
28.09.2016 02:48 8,8 C 94 % 1027,7 hPa 0,0 l/m 0,0 km/h (0 Bft) S-SO 164 0 min 0,000 mm 0,0 UV-I 0 W/m 7,9 C 8,8 C 0,0 km/h (0 Bft) 100,00 %
28.09.2016 02:50 8,8 C 94 % 1027,8 hPa 0,0 l/m 0,0 km/h (0 Bft) S-SO 164 0 min 0,000 mm 0,0 UV-I 0 W/m 7,9 C 8,8 C 0,0 km/h (0 Bft) 97,37 %
28.09.2016 02:52 8,8 C 93 % 1027,8 hPa 0,0 l/m 0,6 km/h (0 Bft) S-SO 164 0 min 0,000 mm 0,0 UV-I 0 W/m 7,7 C 8,8 C 1,6 km/h (1 Bft) 100,00 %
28.09.2016 02:54 8,8 C 94 % 1027,8 hPa 0,0 l/m 2,1 km/h (1 Bft) S-SO 164 0 min 0,000 mm 0,0 UV-I 0 W/m 7,9 C 8,8 C 6,4 km/h (2 Bft) 95,74 %
28.09.2016 02:56 8,7 C 93 % 1027,8 hPa 0,0 l/m 4,7 km/h (1 Bft) S-SO 164 0 min 0,000 mm 0,0 UV-I 0 W/m 7,6 C 8,7 C 6,4 km/h (2 Bft) 97,14 %
28.09.2016 02:58 8,6 C 93 % 1027,8 hPa 0,0 l/m 5,5 km/h (1 Bft) S-SO 164 0 min 0,000 mm 0,0 UV-I 0 W/m 7,5 C 8,6 C 6,4 km/h (2 Bft) 96,23 %
28.09.2016 03:00 8,5 C 93 % 1027,8 hPa 0,0 l/m 5,7 km/h (1 Bft) S-SO 164 0 min 0,000 mm 0,0 UV-I 0 W/m 7,4 C 8,5 C 6,4 km/h (2 Bft) 98,00 %
28.09.2016 03:02 8,6 C 94 % 1027,8 hPa 0,0 l/m 4,8 km/h (1 Bft) SO 146 0 min 0,000 mm 0,0 UV-I 0 W/m 7,7 C 8,6 C 6,4 km/h (2 Bft) 97,87 %
28.09.2016 03:04 8,6 C 94 % 1027,8 hPa 0,0 l/m 3,3 km/h (1 Bft) SO 146 0 min 0,000 mm 0,0 UV-I 0 W/m 7,7 C 8,6 C 4,8 km/h (1 Bft) 97,73 %
28.09.2016 03:06 8,6 C 94 % 1027,8 hPa 0,0 l/m 2,7 km/h (1 Bft) SO 146 0 min 0,000 mm 0,0 UV-I 0 W/m 7,7 C 8,6 C 4,8 km/h (1 Bft) 95,74 %
28.09.2016 03:08 8,7 C 94 % 1027,8 hPa 0,0 l/m 3,6 km/h (1 Bft) SO 146 0 min 0,000 mm 0,0 UV-I 0 W/m 7,8 C 8,7 C 6,4 km/h (2 Bft) 97,87 %
28.09.2016 03:10 8,7 C 94 % 1027,8 hPa 0,0 l/m 3,0 km/h (1 Bft) SO 146 0 min 0,000 mm 0,0 UV-I 0 W/m 7,8 C 8,7 C 4,8 km/h (1 Bft) 97,56 %
28.09.2016 03:12 8,7 C 94 % 1027,8 hPa 0,0 l/m 1,1 km/h (1 Bft) SO 146 0 min 0,000 mm 0,0 UV-I 0 W/m 7,8 C 8,7 C 3,2 km/h (1 Bft) 98,00 %
28.09.2016 03:14 8,7 C 94 % 1027,8 hPa 0,0 l/m 1,0 km/h (0 Bft) SO 146 0 min 0,000 mm 0,0 UV-I 0 W/m 7,8 C 8,7 C 3,2 km/h (1 Bft) 96,00 %
28.09.2016 03:16 8,8 C 94 % 1027,9 hPa 0,0 l/m 1,2 km/h (1 Bft) SO 146 0 min 0,000 mm 0,0 UV-I 0 W/m 7,9 C 8,8 C 3,2 km/h (1 Bft) 98,00 %
28.09.2016 03:18 8,9 C 94 % 1027,9 hPa 0,0 l/m 0,5 km/h (0 Bft) SO 146 0 min 0,000 mm 0,0 UV-I 0 W/m 8,0 C 8,9 C 1,6 km/h (1 Bft) 97,37 %
28.09.2016 03:20 9,1 C 95 % 1027,9 hPa 0,0 l/m 4,2 km/h (1 Bft) SO 126 0 min 0,000 mm 0,0 UV-I 0 W/m 8,3 C 9,1 C 8,0 km/h (2 Bft) 98,11 %
28.09.2016 03:22 9,3 C 95 % 1027,8 hPa 0,0 l/m 3,7 km/h (1 Bft) SO 125 0 min 0,000 mm 0,0 UV-I 0 W/m 8,5 C 9,3 C 6,4 km/h (2 Bft) 98,00 %
28.09.2016 03:24 9,4 C 94 % 1027,8 hPa 0,0 l/m 1,6 km/h (1 Bft) SO 125 0 min 0,000 mm 0,0 UV-I 0 W/m 8,5 C 9,4 C 3,2 km/h (1 Bft) 95,83 %
28.09.2016 03:26 9,4 C 94 % 1027,8 hPa 0,0 l/m 0,1 km/h (0 Bft) SO 125 0 min 0,000 mm 0,0 UV-I 0 W/m 8,5 C 9,4 C 1,6 km/h (1 Bft) 98,39 %
28.09.2016 03:28 9,3 C 93 % 1027,9 hPa 0,0 l/m 1,8 km/h (1 Bft) SO 125 0 min 0,000 mm 0,0 UV-I 0 W/m 8,2 C 9,3 C 3,2 km/h (1 Bft) 97,37 %
28.09.2016 03:30 9,3 C 93 % 1027,8 hPa 0,0 l/m 1,6 km/h (1 Bft) SO 141 0 min 0,000 mm 0,0 UV-I 0 W/m 8,2 C 9,3 C 3,2 km/h (1 Bft) 98,00 %
28.09.2016 03:32 9,3 C 93 % 1027,8 hPa 0,0 l/m 2,1 km/h (1 Bft) SO 141 0 min 0,000 mm 0,0 UV-I 0 W/m 8,2 C 9,3 C 3,2 km/h (1 Bft) 100,00 %
28.09.2016 03:34 9,2 C 93 % 1027,8 hPa 0,0 l/m 2,0 km/h (1 Bft) SO 142 0 min 0,000 mm 0,0 UV-I 0 W/m 8,1 C 9,2 C 4,8 km/h (1 Bft) 100,00 %
28.09.2016 03:36 9,2 C 93 % 1027,7 hPa 0,0 l/m 3,4 km/h (1 Bft) SO 136 0 min 0,000 mm 0,0 UV-I 0 W/m 8,1 C 9,2 C 4,8 km/h (1 Bft) 100,00 %
28.09.2016 03:38 9,2 C 93 % 1027,7 hPa 0,0 l/m 3,5 km/h (1 Bft) SO 137 0 min 0,000 mm 0,0 UV-I 0 W/m 8,1 C 9,2 C 4,8 km/h (1 Bft) 100,00 %
28.09.2016 03:40 9,3 C 94 % 1027,7 hPa 0,0 l/m 2,5 km/h (1 Bft) SO 137 0 min 0,000 mm 0,0 UV-I 0 W/m 8,4 C 9,3 C 4,8 km/h (1 Bft) 100,00 %
28.09.2016 03:42 9,3 C 93 % 1027,6 hPa 0,0 l/m 0,6 km/h (0 Bft) SO 137 0 min 0,000 mm 0,0 UV-I 0 W/m 8,2 C 9,3 C 1,6 km/h (1 Bft) 100,00 %
28.09.2016 03:44 9,2 C 93 % 1027,6 hPa 0,0 l/m 2,2 km/h (1 Bft) SO 137 0 min 0,000 mm 0,0 UV-I 0 W/m 8,1 C 9,2 C 4,8 km/h (1 Bft) 100,00 %
28.09.2016 03:46 9,2 C 93 % 1027,7 hPa 0,0 l/m 3,9 km/h (1 Bft) SO 137 0 min 0,000 mm 0,0 UV-I 0 W/m 8,1 C 9,2 C 6,4 km/h (2 Bft) 98,00 %
28.09.2016 03:48 9,2 C 93 % 1027,6 hPa 0,0 l/m 1,6 km/h (1 Bft) SO 137 0 min 0,000 mm 0,0 UV-I 0 W/m 8,1 C 9,2 C 3,2 km/h (1 Bft) 100,00 %
28.09.2016 03:50 9,2 C 93 % 1027,6 hPa 0,0 l/m 2,0 km/h (1 Bft) SO 137 0 min 0,000 mm 0,0 UV-I 0 W/m 8,1 C 9,2 C 4,8 km/h (1 Bft) 100,00 %
28.09.2016 03:52 9,2 C 93 % 1027,6 hPa 0,0 l/m 0,5 km/h (0 Bft) SO 137 0 min 0,000 mm 0,0 UV-I 0 W/m 8,1 C 9,2 C 1,6 km/h (1 Bft) 95,74 %
28.09.2016 03:54 9,1 C 93 % 1027,6 hPa 0,0 l/m 0,8 km/h (0 Bft) SO 137 0 min 0,000 mm 0,0 UV-I 0 W/m 8,0 C 9,1 C 1,6 km/h (1 Bft) 100,00 %
28.09.2016 03:56 9,1 C 93 % 1027,6 hPa 0,0 l/m 2,2 km/h (1 Bft) SO 137 0 min 0,000 mm 0,0 UV-I 0 W/m 8,0 C 9,1 C 4,8 km/h (1 Bft) 98,00 %
28.09.2016 03:58 8,9 C 93 % 1027,6 hPa 0,0 l/m 1,9 km/h (1 Bft) SO 137 0 min 0,000 mm 0,0 UV-I 0 W/m 7,8 C 8,9 C 3,2 km/h (1 Bft) 98,00 %
28.09.2016 04:00 8,8 C 93 % 1027,6 hPa 0,0 l/m 3,3 km/h (1 Bft) SO 138 0 min 0,000 mm 0,0 UV-I 0 W/m 7,7 C 8,8 C 4,8 km/h (1 Bft) 98,00 %
28.09.2016 04:02 8,9 C 94 % 1027,5 hPa 0,0 l/m 3,3 km/h (1 Bft) SO 138 0 min 0,000 mm 0,0 UV-I 0 W/m 8,0 C 8,9 C 4,8 km/h (1 Bft) 100,00 %
28.09.2016 04:04 8,9 C 94 % 1027,5 hPa 0,0 l/m 0,6 km/h (0 Bft) SO 138 0 min 0,000 mm 0,0 UV-I 0 W/m 8,0 C 8,9 C 3,2 km/h (1 Bft) 98,04 %
28.09.2016 04:06 8,9 C 93 % 1027,5 hPa 0,0 l/m 0,1 km/h (0 Bft) SO 138 0 min 0,000 mm 0,0 UV-I 0 W/m 7,8 C 8,9 C 1,6 km/h (1 Bft) 95,74 %
28.09.2016 04:08 8,9 C 93 % 1027,5 hPa 0,0 l/m 1,2 km/h (1 Bft) SO 138 0 min 0,000 mm 0,0 UV-I 0 W/m 7,8 C 8,9 C 3,2 km/h (1 Bft) 100,00 %
28.09.2016 04:10 8,8 C 93 % 1027,5 hPa 0,0 l/m 1,3 km/h (1 Bft) SO 138 0 min 0,000 mm 0,0 UV-I 0 W/m 7,7 C 8,8 C 3,2 km/h (1 Bft) 97,87 %
28.09.2016 04:12 8,8 C 94 % 1027,5 hPa 0,0 l/m 0,9 km/h (0 Bft) SO 138 0 min 0,000 mm 0,0 UV-I 0 W/m 7,9 C 8,8 C 3,2 km/h (1 Bft) 98,00 %
28.09.2016 04:14 8,8 C 94 % 1027,5 hPa 0,0 l/m 2,2 km/h (1 Bft) SO 138 0 min 0,000 mm 0,0 UV-I 0 W/m 7,9 C 8,8 C 3,2 km/h (1 Bft) 100,00 %
28.09.2016 04:16 8,7 C 94 % 1027,5 hPa 0,0 l/m 1,9 km/h (1 Bft) SO 138 0 min 0,000 mm 0,0 UV-I 0 W/m 7,8 C 8,7 C 3,2 km/h (1 Bft) 100,00 %
28.09.2016 04:18 8,7 C 94 % 1027,5 hPa 0,0 l/m 1,8 km/h (1 Bft) SO 138 0 min 0,000 mm 0,0 UV-I 0 W/m 7,8 C 8,7 C 3,2 km/h (1 Bft) 100,00 %
28.09.2016 04:20 8,7 C 94 % 1027,5 hPa 0,0 l/m 1,8 km/h (1 Bft) SO 138 0 min 0,000 mm 0,0 UV-I 0 W/m 7,8 C 8,7 C 3,2 km/h (1 Bft) 100,00 %
28.09.2016 04:22 8,7 C 94 % 1027,5 hPa 0,0 l/m 3,1 km/h (1 Bft) SO 138 0 min 0,000 mm 0,0 UV-I 0 W/m 7,8 C 8,7 C 4,8 km/h (1 Bft) 98,00 %
28.09.2016 04:24 8,6 C 94 % 1027,5 hPa 0,0 l/m 2,3 km/h (1 Bft) SO 138 0 min 0,000 mm 0,0 UV-I 0 W/m 7,7 C 8,6 C 4,8 km/h (1 Bft) 100,00 %
28.09.2016 04:26 8,6 C 94 % 1027,6 hPa 0,0 l/m 1,0 km/h (0 Bft) SO 138 0 min 0,000 mm 0,0 UV-I 0 W/m 7,7 C 8,6 C 3,2 km/h (1 Bft) 100,00 %
28.09.2016 04:28 8,6 C 94 % 1027,6 hPa 0,0 l/m 1,6 km/h (1 Bft) SO 138 0 min 0,000 mm 0,0 UV-I 0 W/m 7,7 C 8,6 C 3,2 km/h (1 Bft) 100,00 %
28.09.2016 04:30 8,6 C 95 % 1027,6 hPa 0,0 l/m 1,0 km/h (0 Bft) SO 138 0 min 0,000 mm 0,0 UV-I 0 W/m 7,8 C 8,6 C 3,2 km/h (1 Bft) 100,00 %
28.09.2016 04:32 8,6 C 95 % 1027,6 hPa 0,0 l/m 1,3 km/h (1 Bft) SO 138 0 min 0,000 mm 0,0 UV-I 0 W/m 7,8 C 8,6 C 3,2 km/h (1 Bft) 100,00 %
28.09.2016 04:34 8,5 C 94 % 1027,6 hPa 0,0 l/m 1,6 km/h (1 Bft) SO 138 0 min 0,000 mm 0,0 UV-I 0 W/m 7,6 C 8,5 C 3,2 km/h (1 Bft) 100,00 %
28.09.2016 04:36 8,5 C 94 % 1027,6 hPa 0,0 l/m 0,8 km/h (0 Bft) SO 138 0 min 0,000 mm 0,0 UV-I 0 W/m 7,6 C 8,5 C 3,2 km/h (1 Bft) 100,00 %
28.09.2016 04:38 8,4 C 94 % 1027,6 hPa 0,0 l/m 3,5 km/h (1 Bft) SO 138 0 min 0,000 mm 0,0 UV-I 0 W/m 7,5 C 8,4 C 4,8 km/h (1 Bft) 98,00 %
28.09.2016 04:40 8,4 C 94 % 1027,5 hPa 0,0 l/m 4,3 km/h (1 Bft) SO 138 0 min 0,000 mm 0,0 UV-I 0 W/m 7,5 C 8,4 C 4,8 km/h (1 Bft) 100,00 %
28.09.2016 04:42 8,4 C 94 % 1027,5 hPa 0,0 l/m 4,9 km/h (1 Bft) SO 138 0 min 0,000 mm 0,0 UV-I 0 W/m 7,5 C 8,4 C 6,4 km/h (2 Bft) 100,00 %
28.09.2016 04:44 8,4 C 94 % 1027,5 hPa 0,0 l/m 4,7 km/h (1 Bft) SO 138 0 min 0,000 mm 0,0 UV-I 0 W/m 7,5 C 8,4 C 6,4 km/h (2 Bft) 100,00 %
28.09.2016 04:46 8,3 C 95 % 1027,5 hPa 0,0 l/m 4,2 km/h (1 Bft) SO 138 0 min 0,000 mm 0,0 UV-I 0 W/m 7,5 C 8,3 C 4,8 km/h (1 Bft) 100,00 %
28.09.2016 04:48 8,4 C 95 % 1027,6 hPa 0,0 l/m 1,4 km/h (1 Bft) SO 138 0 min 0,000 mm 0,0 UV-I 0 W/m 7,6 C 8,4 C 4,8 km/h (1 Bft) 97,44 %
28.09.2016 04:50 8,4 C 95 % 1027,6 hPa 0,0 l/m 1,1 km/h (1 Bft) SO 138 0 min 0,000 mm 0,0 UV-I 0 W/m 7,6 C 8,4 C 1,6 km/h (1 Bft) 98,00 %
28.09.2016 04:52 8,4 C 95 % 1027,6 hPa 0,0 l/m 1,9 km/h (1 Bft) SO 138 0 min 0,000 mm 0,0 UV-I 0 W/m 7,6 C 8,4 C 3,2 km/h (1 Bft) 100,00 %
28.09.2016 04:54 8,4 C 95 % 1027,6 hPa 0,0 l/m 3,1 km/h (1 Bft) SO 138 0 min 0,000 mm 0,0 UV-I 0 W/m 7,6 C 8,4 C 4,8 km/h (1 Bft) 100,00 %
28.09.2016 04:56 8,4 C 95 % 1027,6 hPa 0,0 l/m 2,6 km/h (1 Bft) SO 138 0 min 0,000 mm 0,0 UV-I 0 W/m 7,6 C 8,4 C 3,2 km/h (1 Bft) 100,00 %
28.09.2016 04:58 8,4 C 95 % 1027,6 hPa 0,0 l/m 2,0 km/h (1 Bft) SO 138 0 min 0,000 mm 0,0 UV-I 0 W/m 7,6 C 8,4 C 4,8 km/h (1 Bft) 97,56 %
28.09.2016 05:00 8,4 C 95 % 1027,6 hPa 0,0 l/m 1,9 km/h (1 Bft) SO 138 0 min 0,000 mm 0,0 UV-I 0 W/m 7,6 C 8,4 C 3,2 km/h (1 Bft) 98,11 %
28.09.2016 05:02 8,4 C 95 % 1027,6 hPa 0,0 l/m 2,2 km/h (1 Bft) SO 138 0 min 0,000 mm 0,0 UV-I 0 W/m 7,6 C 8,4 C 3,2 km/h (1 Bft) 97,73 %
28.09.2016 05:04 8,4 C 95 % 1027,6 hPa 0,0 l/m 1,6 km/h (1 Bft) SO 138 0 min 0,000 mm 0,0 UV-I 0 W/m 7,6 C 8,4 C 3,2 km/h (1 Bft) 98,00 %
28.09.2016 05:06 8,4 C 94 % 1027,6 hPa 0,0 l/m 1,7 km/h (1 Bft) SO 138 0 min 0,000 mm 0,0 UV-I 0 W/m 7,5 C 8,4 C 3,2 km/h (1 Bft) 97,87 %
28.09.2016 05:08 8,4 C 94 % 1027,6 hPa 0,0 l/m 2,2 km/h (1 Bft) SO 138 0 min 0,000 mm 0,0 UV-I 0 W/m 7,5 C 8,4 C 3,2 km/h (1 Bft) 98,00 %
28.09.2016 05:10 8,3 C 94 % 1027,6 hPa 0,0 l/m 0,9 km/h (0 Bft) SO 138 0 min 0,000 mm 0,0 UV-I 0 W/m 7,4 C 8,3 C 1,6 km/h (1 Bft) 97,37 %
28.09.2016 05:12 8,3 C 94 % 1027,6 hPa 0,0 l/m 1,4 km/h (1 Bft) SO 138 0 min 0,000 mm 0,0 UV-I 0 W/m 7,4 C 8,3 C 1,6 km/h (1 Bft) 98,11 %
28.09.2016 05:14 8,3 C 94 % 1027,6 hPa 0,0 l/m 0,0 km/h (0 Bft) SO 138 0 min 0,000 mm 0,0 UV-I 0 W/m 7,4 C 8,3 C 1,6 km/h (1 Bft) 94,34 %
28.09.2016 05:16 8,3 C 94 % 1027,7 hPa 0,0 l/m 1,0 km/h (0 Bft) SO 138 0 min 0,000 mm 0,0 UV-I 0 W/m 7,4 C 8,3 C 1,6 km/h (1 Bft) 97,56 %
28.09.2016 05:18 8,3 C 94 % 1027,6 hPa 0,0 l/m 1,5 km/h (1 Bft) SO 138 0 min 0,000 mm 0,0 UV-I 0 W/m 7,4 C 8,3 C 3,2 km/h (1 Bft) 98,00 %
28.09.2016 05:20 8,3 C 94 % 1027,6 hPa 0,0 l/m 1,4 km/h (1 Bft) SO 138 0 min 0,000 mm 0,0 UV-I 0 W/m 7,4 C 8,3 C 1,6 km/h (1 Bft) 95,74 %
28.09.2016 05:22 8,3 C 94 % 1027,6 hPa 0,0 l/m 1,0 km/h (0 Bft) SO 138 0 min 0,000 mm 0,0 UV-I 0 W/m 7,4 C 8,3 C 1,6 km/h (1 Bft) 95,83 %
28.09.2016 05:24 8,2 C 94 % 1027,7 hPa 0,0 l/m 0,3 km/h (0 Bft) SO 138 0 min 0,000 mm 0,0 UV-I 0 W/m 7,3 C 8,2 C 1,6 km/h (1 Bft) 98,39 %
28.09.2016 05:26 8,2 C 94 % 1027,7 hPa 0,0 l/m 1,3 km/h (1 Bft) SO 138 0 min 0,000 mm 0,0 UV-I 0 W/m 7,3 C 8,2 C 3,2 km/h (1 Bft) 97,87 %
28.09.2016 05:28 8,2 C 94 % 1027,7 hPa 0,0 l/m 1,7 km/h (1 Bft) SO 138 0 min 0,000 mm 0,0 UV-I 0 W/m 7,3 C 8,2 C 3,2 km/h (1 Bft) 96,23 %
28.09.2016 05:30 8,2 C 94 % 1027,7 hPa 0,0 l/m 1,3 km/h (1 Bft) SO 138 0 min 0,000 mm 0,0 UV-I 0 W/m 7,3 C 8,2 C 1,6 km/h (1 Bft) 97,56 %
28.09.2016 05:32 8,2 C 94 % 1027,7 hPa 0,0 l/m 1,5 km/h (1 Bft) SO 138 0 min 0,000 mm 0,0 UV-I 0 W/m 7,3 C 8,2 C 3,2 km/h (1 Bft) 97,87 %
28.09.2016 05:34 8,2 C 94 % 1027,7 hPa 0,0 l/m 0,8 km/h (0 Bft) SO 138 0 min 0,000 mm 0,0 UV-I 0 W/m 7,3 C 8,2 C 1,6 km/h (1 Bft) 93,62 %
28.09.2016 05:36 8,2 C 94 % 1027,7 hPa 0,0 l/m 0,1 km/h (0 Bft) SO 138 0 min 0,000 mm 0,0 UV-I 0 W/m 7,3 C 8,2 C 1,6 km/h (1 Bft) 98,00 %
28.09.2016 05:38 8,2 C 94 % 1027,7 hPa 0,0 l/m 0,0 km/h (0 Bft) SO 138 0 min 0,000 mm 0,0 UV-I 0 W/m 7,3 C 8,2 C 0,0 km/h (0 Bft) 100,00 %
28.09.2016 05:40 8,2 C 94 % 1027,6 hPa 0,0 l/m 0,4 km/h (0 Bft) SO 138 0 min 0,000 mm 0,0 UV-I 0 W/m 7,3 C 8,2 C 1,6 km/h (1 Bft) 97,37 %
28.09.2016 05:42 8,2 C 94 % 1027,7 hPa 0,0 l/m 0,0 km/h (0 Bft) SO 138 0 min 0,000 mm 0,0 UV-I 0 W/m 7,3 C 8,2 C 1,6 km/h (1 Bft) 98,11 %
28.09.2016 05:44 8,1 C 94 % 1027,6 hPa 0,0 l/m 0,0 km/h (0 Bft) SO 138 0 min 0,000 mm 0,0 UV-I 0 W/m 7,2 C 8,1 C 0,0 km/h (0 Bft) 100,00 %
28.09.2016 05:46 8,1 C 94 % 1027,7 hPa 0,0 l/m 0,0 km/h (0 Bft) SO 138 0 min 0,000 mm 0,0 UV-I 0 W/m 7,2 C 8,1 C 0,0 km/h (0 Bft) 100,00 %
28.09.2016 05:48 8,1 C 94 % 1027,6 hPa 0,0 l/m 0,0 km/h (0 Bft) SO 138 0 min 0,000 mm 0,0 UV-I 0 W/m 7,2 C 8,1 C 0,0 km/h (0 Bft) 100,00 %
28.09.2016 05:50 8,1 C 94 % 1027,7 hPa 0,0 l/m 0,0 km/h (0 Bft) SO 138 0 min 0,000 mm 0,0 UV-I 0 W/m 7,2 C 8,1 C 0,0 km/h (0 Bft) 100,00 %
28.09.2016 05:52 8,1 C 94 % 1027,7 hPa 0,0 l/m 0,7 km/h (0 Bft) SO 138 0 min 0,000 mm 0,0 UV-I 0 W/m 7,2 C 8,1 C 1,6 km/h (1 Bft) 100,00 %
28.09.2016 05:54 8,1 C 94 % 1027,8 hPa 0,0 l/m 0,9 km/h (0 Bft) SO 138 0 min 0,000 mm 0,0 UV-I 0 W/m 7,2 C 8,1 C 1,6 km/h (1 Bft) 100,00 %
28.09.2016 05:56 8,0 C 94 % 1027,8 hPa 0,0 l/m 0,1 km/h (0 Bft) SO 138 0 min 0,000 mm 0,0 UV-I 0 W/m 7,1 C 8,0 C 1,6 km/h (1 Bft) 100,00 %
28.09.2016 05:58 8,0 C 94 % 1027,7 hPa 0,0 l/m 0,1 km/h (0 Bft) SO 138 0 min 0,000 mm 0,0 UV-I 0 W/m 7,1 C 8,0 C 1,6 km/h (1 Bft) 100,00 %
28.09.2016 06:00 7,9 C 94 % 1027,8 hPa 0,0 l/m 0,1 km/h (0 Bft) SO 138 0 min 0,000 mm 0,0 UV-I 0 W/m 7,0 C 7,9 C 1,6 km/h (1 Bft) 100,00 %
28.09.2016 06:02 7,9 C 94 % 1027,8 hPa 0,0 l/m 1,8 km/h (1 Bft) SO 138 0 min 0,000 mm 0,0 UV-I 0 W/m 7,0 C 7,9 C 3,2 km/h (1 Bft) 100,00 %
28.09.2016 06:04 7,9 C 94 % 1027,8 hPa 0,0 l/m 1,1 km/h (1 Bft) SO 138 0 min 0,000 mm 0,0 UV-I 0 W/m 7,0 C 7,9 C 1,6 km/h (1 Bft) 95,74 %
28.09.2016 06:06 7,9 C 94 % 1027,8 hPa 0,0 l/m 0,1 km/h (0 Bft) SO 138 0 min 0,000 mm 0,0 UV-I 0 W/m 7,0 C 7,9 C 1,6 km/h (1 Bft) 100,00 %
28.09.2016 06:08 7,9 C 94 % 1027,8 hPa 0,0 l/m 0,0 km/h (0 Bft) SO 138 0 min 0,000 mm 0,0 UV-I 0 W/m 7,0 C 7,9 C 0,0 km/h (0 Bft) 100,00 %
28.09.2016 06:10 7,8 C 94 % 1027,8 hPa 0,0 l/m 0,0 km/h (0 Bft) SO 138 0 min 0,000 mm 0,0 UV-I 0 W/m 6,9 C 7,8 C 0,0 km/h (0 Bft) 97,87 %
28.09.2016 06:12 7,8 C 94 % 1027,8 hPa 0,0 l/m 0,0 km/h (0 Bft) SO 138 0 min 0,000 mm 0,0 UV-I 0 W/m 6,9 C 7,8 C 0,0 km/h (0 Bft) 98,00 %
28.09.2016 06:14 7,8 C 94 % 1027,9 hPa 0,0 l/m 0,4 km/h (0 Bft) SO 138 0 min 0,000 mm 0,0 UV-I 0 W/m 6,9 C 7,8 C 1,6 km/h (1 Bft) 100,00 %
28.09.2016 06:16 7,8 C 94 % 1028,0 hPa 0,0 l/m 1,4 km/h (1 Bft) SO 138 0 min 0,000 mm 0,0 UV-I 0 W/m 6,9 C 7,8 C 1,6 km/h (1 Bft) 100,00 %
28.09.2016 06:18 7,8 C 94 % 1028,0 hPa 0,0 l/m 2,0 km/h (1 Bft) SO 138 0 min 0,000 mm 0,0 UV-I 0 W/m 6,9 C 7,8 C 3,2 km/h (1 Bft) 95,74 %
28.09.2016 06:20 7,8 C 94 % 1028,0 hPa 0,0 l/m 2,2 km/h (1 Bft) SO 138 0 min 0,000 mm 0,0 UV-I 0 W/m 6,9 C 7,8 C 3,2 km/h (1 Bft) 100,00 %
28.09.2016 06:22 7,8 C 94 % 1027,9 hPa 0,0 l/m 0,6 km/h (0 Bft) SO 138 0 min 0,000 mm 0,0 UV-I 0 W/m 6,9 C 7,8 C 3,2 km/h (1 Bft) 98,00 %
28.09.2016 06:24 7,8 C 94 % 1027,9 hPa 0,0 l/m 0,2 km/h (0 Bft) SO 138 0 min 0,000 mm 0,0 UV-I 0 W/m 6,9 C 7,8 C 1,6 km/h (1 Bft) 95,74 %
28.09.2016 06:26 7,7 C 94 % 1027,9 hPa 0,0 l/m 0,0 km/h (0 Bft) SO 138 0 min 0,000 mm 0,0 UV-I 0 W/m 6,8 C 7,7 C 0,0 km/h (0 Bft) 100,00 %
28.09.2016 06:28 7,7 C 94 % 1027,8 hPa 0,0 l/m 0,0 km/h (0 Bft) SO 138 0 min 0,000 mm 0,0 UV-I 0 W/m 6,8 C 7,7 C 0,0 km/h (0 Bft) 97,87 %
28.09.2016 06:30 7,7 C 94 % 1027,9 hPa 0,0 l/m 1,9 km/h (1 Bft) SO 138 0 min 0,000 mm 0,0 UV-I 0 W/m 6,8 C 7,7 C 3,2 km/h (1 Bft) 100,00 %
28.09.2016 06:32 7,7 C 94 % 1027,9 hPa 0,0 l/m 2,5 km/h (1 Bft) SO 138 0 min 0,000 mm 0,0 UV-I 0 W/m 6,8 C 7,7 C 3,2 km/h (1 Bft) 100,00 %
28.09.2016 06:34 7,7 C 94 % 1027,8 hPa 0,0 l/m 1,0 km/h (0 Bft) SO 138 0 min 0,000 mm 0,0 UV-I 0 W/m 6,8 C 7,7 C 3,2 km/h (1 Bft) 100,00 %
28.09.2016 06:36 7,6 C 94 % 1027,8 hPa 0,0 l/m 1,0 km/h (0 Bft) SO 138 0 min 0,000 mm 0,0 UV-I 0 W/m 6,7 C 7,6 C 1,6 km/h (1 Bft) 100,00 %
28.09.2016 06:38 7,6 C 95 % 1027,8 hPa 0,0 l/m 1,1 km/h (1 Bft) SO 138 0 min 0,000 mm 0,0 UV-I 0 W/m 6,9 C 7,6 C 1,6 km/h (1 Bft) 100,00 %
28.09.2016 06:40 7,6 C 95 % 1027,9 hPa 0,0 l/m 0,5 km/h (0 Bft) SO 138 0 min 0,000 mm 0,0 UV-I 0 W/m 6,9 C 7,6 C 1,6 km/h (1 Bft) 100,00 %
28.09.2016 06:42 7,6 C 95 % 1027,8 hPa 0,0 l/m 0,2 km/h (0 Bft) SO 138 0 min 0,000 mm 0,0 UV-I 0 W/m 6,9 C 7,6 C 1,6 km/h (1 Bft) 98,00 %
28.09.2016 06:44 7,6 C 95 % 1027,8 hPa 0,0 l/m 0,7 km/h (0 Bft) SO 138 0 min 0,000 mm 0,0 UV-I 0 W/m 6,9 C 7,6 C 3,2 km/h (1 Bft) 100,00 %
28.09.2016 06:46 7,6 C 95 % 1027,8 hPa 0,0 l/m 1,4 km/h (1 Bft) SO 138 0 min 0,000 mm 0,0 UV-I 0 W/m 6,9 C 7,6 C 3,2 km/h (1 Bft) 100,00 %
28.09.2016 06:48 7,6 C 95 % 1027,8 hPa 0,0 l/m 3,2 km/h (1 Bft) SO 138 0 min 0,000 mm 0,0 UV-I 0 W/m 6,9 C 7,6 C 4,8 km/h (1 Bft) 100,00 %
28.09.2016 06:50 7,6 C 95 % 1027,8 hPa 0,0 l/m 2,9 km/h (1 Bft) SO 138 0 min 0,000 mm 0,0 UV-I 0 W/m 6,9 C 7,6 C 4,8 km/h (1 Bft) 100,00 %
28.09.2016 06:52 7,6 C 95 % 1027,8 hPa 0,0 l/m 2,9 km/h (1 Bft) SO 140 0 min 0,000 mm 0,0 UV-I 0 W/m 6,9 C 7,6 C 4,8 km/h (1 Bft) 100,00 %
28.09.2016 06:54 7,6 C 95 % 1027,8 hPa 0,0 l/m 2,3 km/h (1 Bft) SO 140 0 min 0,000 mm 0,0 UV-I 0 W/m 6,9 C 7,6 C 4,8 km/h (1 Bft) 97,87 %
28.09.2016 06:56 7,7 C 95 % 1028,0 hPa 0,0 l/m 1,1 km/h (1 Bft) SO 140 0 min 0,000 mm 0,0 UV-I 0 W/m 7,0 C 7,7 C 3,2 km/h (1 Bft) 97,87 %
28.09.2016 06:58 7,6 C 95 % 1028,0 hPa 0,0 l/m 1,2 km/h (1 Bft) SO 140 0 min 0,000 mm 0,0 UV-I 5 W/m 6,9 C 7,6 C 1,6 km/h (1 Bft) 93,62 %
28.09.2016 07:00 7,6 C 95 % 1028,0 hPa 0,0 l/m 1,4 km/h (1 Bft) SO 140 0 min 0,000 mm 0,0 UV-I 5 W/m 6,9 C 7,6 C 3,2 km/h (1 Bft) 95,74 %
28.09.2016 07:02 7,7 C 95 % 1027,9 hPa 0,0 l/m 1,1 km/h (1 Bft) SO 140 0 min 0,000 mm 0,0 UV-I 6 W/m 7,0 C 7,7 C 1,6 km/h (1 Bft) 94,29 %
28.09.2016 07:04 7,7 C 95 % 1027,9 hPa 0,0 l/m 2,7 km/h (1 Bft) SO 140 0 min 0,000 mm 0,0 UV-I 7 W/m 7,0 C 7,7 C 3,2 km/h (1 Bft) 100,00 %
28.09.2016 07:06 7,6 C 95 % 1027,9 hPa 0,0 l/m 3,1 km/h (1 Bft) SO 142 0 min 0,000 mm 0,0 UV-I 8 W/m 6,9 C 7,6 C 4,8 km/h (1 Bft) 97,87 %
28.09.2016 07:08 7,6 C 95 % 1027,9 hPa 0,0 l/m 3,3 km/h (1 Bft) S-SO 165 0 min 0,000 mm 0,0 UV-I 9 W/m 6,9 C 7,6 C 6,4 km/h (2 Bft) 93,62 %
28.09.2016 07:10 7,6 C 95 % 1027,9 hPa 0,0 l/m 2,9 km/h (1 Bft) S-SO 165 2 min 0,000 mm 0,0 UV-I 11 W/m 6,9 C 7,6 C 6,4 km/h (2 Bft) 98,00 %
28.09.2016 07:12 7,6 C 95 % 1027,9 hPa 0,0 l/m 1,7 km/h (1 Bft) S-SO 165 0 min 0,000 mm 0,0 UV-I 12 W/m 6,9 C 7,6 C 6,4 km/h (2 Bft) 95,74 %
28.09.2016 07:14 7,6 C 95 % 1027,9 hPa 0,0 l/m 1,7 km/h (1 Bft) S-SO 165 0 min 0,000 mm 0,0 UV-I 13 W/m 6,9 C 7,6 C 3,2 km/h (1 Bft) 97,87 %
28.09.2016 07:16 7,6 C 95 % 1027,9 hPa 0,0 l/m 3,3 km/h (1 Bft) S 175 0 min 0,000 mm 0,0 UV-I 14 W/m 6,9 C 7,6 C 4,8 km/h (1 Bft) 95,74 %
28.09.2016 07:18 7,5 C 95 % 1027,9 hPa 0,0 l/m 0,9 km/h (0 Bft) S 175 0 min 0,000 mm 0,0 UV-I 16 W/m 6,8 C 7,5 C 1,6 km/h (1 Bft) 97,87 %
28.09.2016 07:20 7,5 C 95 % 1027,8 hPa 0,0 l/m 2,0 km/h (1 Bft) S 175 0 min 0,000 mm 0,0 UV-I 18 W/m 6,8 C 7,5 C 3,2 km/h (1 Bft) 97,87 %
28.09.2016 07:22 7,5 C 95 % 1027,8 hPa 0,0 l/m 1,8 km/h (1 Bft) S 175 0 min 0,000 mm 0,0 UV-I 19 W/m 6,8 C 7,5 C 3,2 km/h (1 Bft) 97,87 %
28.09.2016 07:24 7,5 C 95 % 1027,8 hPa 0,0 l/m 3,8 km/h (1 Bft) S 178 0 min 0,000 mm 0,0 UV-I 21 W/m 6,8 C 7,5 C 4,8 km/h (1 Bft) 97,87 %
28.09.2016 07:26 7,5 C 95 % 1027,8 hPa 0,0 l/m 3,0 km/h (1 Bft) S 178 0 min 0,000 mm 0,0 UV-I 22 W/m 6,8 C 7,5 C 4,8 km/h (1 Bft) 95,83 %
28.09.2016 07:28 7,6 C 95 % 1027,9 hPa 0,0 l/m 3,1 km/h (1 Bft) S 179 0 min 0,000 mm 0,0 UV-I 25 W/m 6,9 C 7,6 C 4,8 km/h (1 Bft) 95,74 %
28.09.2016 07:30 7,6 C 95 % 1027,9 hPa 0,0 l/m 3,2 km/h (1 Bft) S 179 0 min 0,000 mm 0,0 UV-I 27 W/m 6,9 C 7,6 C 4,8 km/h (1 Bft) 97,87 %
28.09.2016 07:32 7,6 C 95 % 1027,9 hPa 0,0 l/m 4,2 km/h (1 Bft) S 180 0 min 0,000 mm 0,0 UV-I 28 W/m 6,9 C 7,6 C 6,4 km/h (2 Bft) 93,62 %
28.09.2016 07:34 7,6 C 95 % 1027,9 hPa 0,0 l/m 4,0 km/h (1 Bft) S 181 0 min 0,000 mm 0,0 UV-I 32 W/m 6,9 C 7,6 C 6,4 km/h (2 Bft) 97,87 %
28.09.2016 07:36 7,6 C 95 % 1028,0 hPa 0,0 l/m 2,7 km/h (1 Bft) S 181 0 min 0,000 mm 0,0 UV-I 41 W/m 6,9 C 7,6 C 4,8 km/h (1 Bft) 97,87 %
28.09.2016 07:38 7,7 C 95 % 1027,9 hPa 0,0 l/m 3,0 km/h (1 Bft) S 181 0 min 0,000 mm 0,0 UV-I 45 W/m 7,0 C 7,7 C 4,8 km/h (1 Bft) 95,74 %
28.09.2016 07:40 7,7 C 95 % 1027,9 hPa 0,0 l/m 3,5 km/h (1 Bft) S 182 0 min 0,000 mm 0,0 UV-I 48 W/m 7,0 C 7,7 C 6,4 km/h (2 Bft) 97,87 %
28.09.2016 07:42 7,7 C 96 % 1027,9 hPa 0,0 l/m 2,3 km/h (1 Bft) S 182 0 min 0,000 mm 0,0 UV-I 52 W/m 7,1 C 7,7 C 3,2 km/h (1 Bft) 95,74 %
28.09.2016 07:44 7,8 C 96 % 1028,0 hPa 0,0 l/m 2,7 km/h (1 Bft) S 182 0 min 0,000 mm 0,0 UV-I 58 W/m 7,2 C 7,8 C 4,8 km/h (1 Bft) 94,29 %
28.09.2016 07:46 7,8 C 96 % 1028,0 hPa 0,0 l/m 3,5 km/h (1 Bft) S 185 0 min 0,000 mm 0,0 UV-I 65 W/m 7,2 C 7,8 C 4,8 km/h (1 Bft) 96,23 %
28.09.2016 07:48 7,8 C 96 % 1028,0 hPa 0,0 l/m 4,1 km/h (1 Bft) SW 215 2 min 0,000 mm 0,0 UV-I 71 W/m 7,2 C 7,8 C 6,4 km/h (2 Bft) 100,00 %
28.09.2016 07:50 7,9 C 96 % 1028,0 hPa 0,0 l/m 3,3 km/h (1 Bft) SW 215 2 min 0,000 mm 0,0 UV-I 77 W/m 7,3 C 7,9 C 4,8 km/h (1 Bft) 100,00 %
28.09.2016 07:52 7,9 C 96 % 1028,0 hPa 0,0 l/m 1,2 km/h (1 Bft) SW 215 2 min 0,000 mm 0,0 UV-I 83 W/m 7,3 C 7,9 C 3,2 km/h (1 Bft) 97,87 %
28.09.2016 07:54 8,0 C 96 % 1028,0 hPa 0,0 l/m 1,4 km/h (1 Bft) SW 215 2 min 0,000 mm 0,0 UV-I 88 W/m 7,4 C 8,0 C 3,2 km/h (1 Bft) 100,00 %
28.09.2016 07:56 8,1 C 96 % 1028,0 hPa 0,0 l/m 2,0 km/h (1 Bft) SW 215 2 min 0,000 mm 0,0 UV-I 91 W/m 7,5 C 8,1 C 3,2 km/h (1 Bft) 100,00 %
28.09.2016 07:58 8,1 C 96 % 1028,0 hPa 0,0 l/m 0,2 km/h (0 Bft) SW 215 2 min 0,000 mm 0,0 UV-I 94 W/m 7,5 C 8,1 C 1,6 km/h (1 Bft) 95,74 %
28.09.2016 08:00 8,2 C 96 % 1028,0 hPa 0,0 l/m 0,0 km/h (0 Bft) SW 215 2 min 0,025 mm 0,0 UV-I 98 W/m 7,6 C 8,2 C 0,0 km/h (0 Bft) 97,87 %
28.09.2016 08:02 8,2 C 96 % 1028,0 hPa 0,0 l/m 0,0 km/h (0 Bft) SW 215 2 min 0,000 mm 0,0 UV-I 98 W/m 7,6 C 8,2 C 0,0 km/h (0 Bft) 100,00 %
28.09.2016 08:04 8,3 C 96 % 1028,0 hPa 0,0 l/m 0,0 km/h (0 Bft) SW 215 2 min 0,000 mm 0,0 UV-I 101 W/m 7,7 C 8,3 C 0,0 km/h (0 Bft) 97,92 %
28.09.2016 08:06 8,3 C 96 % 1028,1 hPa 0,0 l/m 0,0 km/h (0 Bft) SW 215 2 min 0,000 mm 0,0 UV-I 106 W/m 7,7 C 8,3 C 0,0 km/h (0 Bft) 97,87 %
28.09.2016 08:08 8,4 C 96 % 1028,1 hPa 0,0 l/m 0,0 km/h (0 Bft) SW 215 2 min 0,000 mm 0,0 UV-I 104 W/m 7,8 C 8,4 C 1,6 km/h (1 Bft) 100,00 %
28.09.2016 08:10 8,5 C 96 % 1028,1 hPa 0,0 l/m 1,2 km/h (1 Bft) SW 215 2 min 0,000 mm 0,0 UV-I 111 W/m 7,9 C 8,5 C 3,2 km/h (1 Bft) 100,00 %
28.09.2016 08:12 8,6 C 96 % 1028,0 hPa 0,0 l/m 0,1 km/h (0 Bft) SW 215 2 min 0,000 mm 0,0 UV-I 116 W/m 8,0 C 8,6 C 1,6 km/h (1 Bft) 95,74 %
28.09.2016 08:14 8,7 C 96 % 1028,0 hPa 0,0 l/m 0,3 km/h (0 Bft) SW 215 2 min 0,000 mm 0,0 UV-I 128 W/m 8,1 C 8,7 C 1,6 km/h (1 Bft) 95,74 %
28.09.2016 08:16 8,8 C 96 % 1028,0 hPa 0,0 l/m 1,8 km/h (1 Bft) SW 215 2 min 0,000 mm 0,0 UV-I 125 W/m 8,2 C 8,8 C 3,2 km/h (1 Bft) 98,00 %
28.09.2016 08:18 8,9 C 96 % 1028,0 hPa 0,0 l/m 0,9 km/h (0 Bft) SW 215 2 min 0,000 mm 0,0 UV-I 126 W/m 8,3 C 8,9 C 3,2 km/h (1 Bft) 97,87 %
28.09.2016 08:20 8,9 C 96 % 1028,0 hPa 0,0 l/m 1,9 km/h (1 Bft) SW 215 0 min 0,000 mm 0,0 UV-I 111 W/m 8,3 C 8,9 C 3,2 km/h (1 Bft) 100,00 %
28.09.2016 08:22 9,1 C 96 % 1028,0 hPa 0,0 l/m 2,3 km/h (1 Bft) SW 215 2 min 0,000 mm 0,0 UV-I 126 W/m 8,5 C 9,1 C 3,2 km/h (1 Bft) 100,00 %
28.09.2016 08:24 9,2 C 96 % 1028,0 hPa 0,0 l/m 2,0 km/h (1 Bft) SW 215 2 min 0,000 mm 0,0 UV-I 135 W/m 8,6 C 9,2 C 4,8 km/h (1 Bft) 97,87 %
28.09.2016 08:26 9,2 C 96 % 1028,0 hPa 0,0 l/m 0,8 km/h (0 Bft) S-SW 212 2 min 0,000 mm 0,0 UV-I 138 W/m 8,6 C 9,2 C 3,2 km/h (1 Bft) 100,00 %
28.09.2016 08:28 9,3 C 96 % 1028,0 hPa 0,0 l/m 1,6 km/h (1 Bft) S-SO 160 2 min 0,000 mm 0,0 UV-I 133 W/m 8,7 C 9,3 C 3,2 km/h (1 Bft) 100,00 %
28.09.2016 08:30 9,4 C 96 % 1028,0 hPa 0,0 l/m 1,1 km/h (1 Bft) S-SO 160 2 min 0,000 mm 0,0 UV-I 160 W/m 8,8 C 9,4 C 3,2 km/h (1 Bft) 100,00 %
28.09.2016 08:32 9,6 C 96 % 1028,0 hPa 0,0 l/m 0,6 km/h (0 Bft) S-SO 160 2 min 0,000 mm 0,0 UV-I 150 W/m 9,0 C 9,6 C 1,6 km/h (1 Bft) 100,00 %
28.09.2016 08:34 9,7 C 96 % 1028,1 hPa 0,0 l/m 0,8 km/h (0 Bft) S-SO 160 2 min 0,000 mm 0,0 UV-I 146 W/m 9,1 C 9,7 C 3,2 km/h (1 Bft) 100,00 %
28.09.2016 08:36 9,8 C 96 % 1028,1 hPa 0,0 l/m 1,9 km/h (1 Bft) S-SO 160 0 min 0,000 mm 0,0 UV-I 140 W/m 9,2 C 9,8 C 3,2 km/h (1 Bft) 100,00 %
28.09.2016 08:38 9,8 C 96 % 1028,1 hPa 0,0 l/m 0,3 km/h (0 Bft) S-SO 160 2 min 0,000 mm 0,0 UV-I 152 W/m 9,2 C 9,8 C 1,6 km/h (1 Bft) 100,00 %
28.09.2016 08:40 9,9 C 96 % 1028,1 hPa 0,0 l/m 1,7 km/h (1 Bft) S-SO 160 2 min 0,000 mm 0,0 UV-I 164 W/m 9,3 C 9,9 C 3,2 km/h (1 Bft) 97,87 %
28.09.2016 08:42 10,0 C 96 % 1028,2 hPa 0,0 l/m 1,5 km/h (1 Bft) S-SO 160 0 min 0,000 mm 0,0 UV-I 139 W/m 9,4 C 10,0 C 3,2 km/h (1 Bft) 98,00 %
28.09.2016 08:44 10,1 C 96 % 1028,2 hPa 0,0 l/m 2,5 km/h (1 Bft) S-SO 161 2 min 0,000 mm 0,0 UV-I 164 W/m 9,5 C 10,1 C 3,2 km/h (1 Bft) 100,00 %
28.09.2016 08:46 10,1 C 96 % 1028,2 hPa 0,0 l/m 2,1 km/h (1 Bft) S-SO 161 0 min 0,000 mm 0,0 UV-I 149 W/m 9,5 C 10,1 C 3,2 km/h (1 Bft) 100,00 %
28.09.2016 08:48 10,2 C 95 % 1028,3 hPa 0,0 l/m 1,6 km/h (1 Bft) S-SO 161 2 min 0,000 mm 0,0 UV-I 190 W/m 9,4 C 10,2 C 3,2 km/h (1 Bft) 97,87 %
28.09.2016 08:50 10,3 C 95 % 1028,3 hPa 0,0 l/m 0,8 km/h (0 Bft) S-SO 161 2 min 0,000 mm 0,0 UV-I 179 W/m 9,5 C 10,3 C 1,6 km/h (1 Bft) 100,00 %
28.09.2016 08:52 10,3 C 95 % 1028,3 hPa 0,0 l/m 0,0 km/h (0 Bft) S-SO 161 2 min 0,000 mm 0,1 UV-I 201 W/m 9,5 C 10,3 C 0,0 km/h (0 Bft) 100,00 %
28.09.2016 08:54 10,4 C 95 % 1028,3 hPa 0,0 l/m 0,0 km/h (0 Bft) S-SO 161 2 min 0,000 mm 0,5 UV-I 235 W/m 9,6 C 10,4 C 0,0 km/h (0 Bft) 97,87 %
28.09.2016 08:56 10,5 C 95 % 1028,3 hPa 0,0 l/m 0,0 km/h (0 Bft) S-SO 161 2 min 0,000 mm 0,5 UV-I 235 W/m 9,7 C 10,5 C 1,6 km/h (1 Bft) 100,00 %
28.09.2016 08:58 10,6 C 95 % 1028,3 hPa 0,0 l/m 0,1 km/h (0 Bft) S-SO 161 2 min 0,000 mm 0,5 UV-I 198 W/m 9,8 C 10,6 C 1,6 km/h (1 Bft) 100,00 %
28.09.2016 09:00 10,8 C 95 % 1028,4 hPa 0,0 l/m 0,2 km/h (0 Bft) S-SO 161 2 min 0,000 mm 0,5 UV-I 201 W/m 10,0 C 10,8 C 1,6 km/h (1 Bft) 100,00 %
28.09.2016 09:02 10,8 C 95 % 1028,4 hPa 0,0 l/m 0,0 km/h (0 Bft) S-SO 161 0 min 0,077 mm 0,5 UV-I 176 W/m 10,0 C 10,8 C 1,6 km/h (1 Bft) 100,00 %
28.09.2016 09:04 11,0 C 95 % 1028,4 hPa 0,0 l/m 0,6 km/h (0 Bft) S-SO 161 0 min 0,000 mm 0,5 UV-I 168 W/m 10,2 C 11,0 C 3,2 km/h (1 Bft) 97,87 %
28.09.2016 09:06 11,1 C 94 % 1028,5 hPa 0,0 l/m 0,6 km/h (0 Bft) S-SO 161 0 min 0,000 mm 0,5 UV-I 175 W/m 10,2 C 11,1 C 1,6 km/h (1 Bft) 97,87 %
28.09.2016 09:08 11,3 C 94 % 1028,5 hPa 0,0 l/m 0,1 km/h (0 Bft) S-SO 161 2 min 0,000 mm 0,5 UV-I 187 W/m 10,4 C 11,3 C 1,6 km/h (1 Bft) 97,87 %
28.09.2016 09:10 11,3 C 94 % 1028,5 hPa 0,0 l/m 0,1 km/h (0 Bft) S-SO 161 2 min 0,000 mm 0,6 UV-I 208 W/m 10,4 C 11,3 C 1,6 km/h (1 Bft) 95,83 %
28.09.2016 09:12 11,4 C 94 % 1028,5 hPa 0,0 l/m 0,0 km/h (0 Bft) S-SO 161 2 min 0,000 mm 0,6 UV-I 231 W/m 10,5 C 11,4 C 0,0 km/h (0 Bft) 98,00 %
28.09.2016 09:14 11,6 C 93 % 1028,6 hPa 0,0 l/m 1,1 km/h (1 Bft) S-SO 161 2 min 0,000 mm 0,6 UV-I 230 W/m 10,5 C 11,6 C 3,2 km/h (1 Bft) 97,87 %
28.09.2016 09:16 11,7 C 92 % 1028,6 hPa 0,0 l/m 0,2 km/h (0 Bft) S-SO 161 2 min 0,000 mm 0,7 UV-I 244 W/m 10,4 C 11,7 C 1,6 km/h (1 Bft) 97,87 %
28.09.2016 09:18 11,7 C 92 % 1028,6 hPa 0,0 l/m 0,9 km/h (0 Bft) S-SO 161 2 min 0,000 mm 0,7 UV-I 237 W/m 10,4 C 11,7 C 3,2 km/h (1 Bft) 95,74 %
28.09.2016 09:20 11,8 C 92 % 1028,7 hPa 0,0 l/m 1,3 km/h (1 Bft) S 170 2 min 0,000 mm 0,7 UV-I 256 W/m 10,5 C 11,8 C 3,2 km/h (1 Bft) 95,74 %
28.09.2016 09:22 11,9 C 91 % 1028,7 hPa 0,0 l/m 0,8 km/h (0 Bft) S 170 2 min 0,000 mm 0,8 UV-I 271 W/m 10,5 C 11,9 C 3,2 km/h (1 Bft) 97,92 %
28.09.2016 09:24 12,0 C 91 % 1028,7 hPa 0,0 l/m 1,1 km/h (1 Bft) S 170 2 min 0,000 mm 0,8 UV-I 283 W/m 10,6 C 12,0 C 3,2 km/h (1 Bft) 97,87 %
28.09.2016 09:26 12,1 C 91 % 1028,7 hPa 0,0 l/m 1,7 km/h (1 Bft) W-SW 250 2 min 0,000 mm 0,8 UV-I 264 W/m 10,7 C 12,1 C 3,2 km/h (1 Bft) 97,56 %
28.09.2016 09:28 12,2 C 90 % 1028,8 hPa 0,0 l/m 2,2 km/h (1 Bft) W-SW 250 2 min 0,000 mm 0,8 UV-I 256 W/m 10,6 C 12,2 C 4,8 km/h (1 Bft) 97,87 %
28.09.2016 09:30 12,3 C 90 % 1028,8 hPa 0,0 l/m 2,4 km/h (1 Bft) W-SW 250 2 min 0,000 mm 0,8 UV-I 240 W/m 10,7 C 12,3 C 4,8 km/h (1 Bft) 93,62 %
28.09.2016 09:32 12,4 C 88 % 1028,9 hPa 0,0 l/m 2,6 km/h (1 Bft) W-SW 258 2 min 0,000 mm 0,8 UV-I 245 W/m 10,5 C 12,4 C 6,4 km/h (2 Bft) 93,62 %
28.09.2016 09:34 12,5 C 88 % 1028,9 hPa 0,0 l/m 1,5 km/h (1 Bft) W 261 2 min 0,000 mm 0,8 UV-I 251 W/m 10,6 C 12,5 C 4,8 km/h (1 Bft) 95,74 %
28.09.2016 09:36 12,6 C 89 % 1028,9 hPa 0,0 l/m 0,3 km/h (0 Bft) W 261 2 min 0,000 mm 0,8 UV-I 252 W/m 10,8 C 12,6 C 1,6 km/h (1 Bft) 95,74 %
28.09.2016 09:38 12,7 C 89 % 1028,9 hPa 0,0 l/m 1,4 km/h (1 Bft) W 260 2 min 0,000 mm 0,9 UV-I 252 W/m 10,9 C 12,7 C 4,8 km/h (1 Bft) 97,87 %
28.09.2016 09:40 12,7 C 88 % 1028,9 hPa 0,0 l/m 2,5 km/h (1 Bft) W 261 2 min 0,000 mm 0,9 UV-I 251 W/m 10,8 C 12,7 C 3,2 km/h (1 Bft) 95,74 %
28.09.2016 09:42 12,8 C 88 % 1028,9 hPa 0,0 l/m 2,2 km/h (1 Bft) W 261 2 min 0,000 mm 1,0 UV-I 290 W/m 10,9 C 12,8 C 4,8 km/h (1 Bft) 100,00 %
28.09.2016 09:44 12,9 C 87 % 1028,8 hPa 0,0 l/m 1,2 km/h (1 Bft) W 261 2 min 0,000 mm 1,0 UV-I 324 W/m 10,8 C 12,9 C 3,2 km/h (1 Bft) 100,00 %
28.09.2016 09:46 12,9 C 87 % 1028,8 hPa 0,0 l/m 2,1 km/h (1 Bft) W-SW 257 2 min 0,000 mm 1,1 UV-I 357 W/m 10,8 C 12,9 C 3,2 km/h (1 Bft) 100,00 %
28.09.2016 09:48 13,1 C 87 % 1028,7 hPa 0,0 l/m 0,4 km/h (0 Bft) W-SW 257 2 min 0,000 mm 1,1 UV-I 364 W/m 11,0 C 13,1 C 1,6 km/h (1 Bft) 97,87 %
28.09.2016 09:50 13,2 C 86 % 1028,8 hPa 0,0 l/m 3,0 km/h (1 Bft) W-SW 254 2 min 0,000 mm 1,1 UV-I 352 W/m 10,9 C 13,2 C 6,4 km/h (2 Bft) 97,87 %
28.09.2016 09:52 13,3 C 86 % 1028,8 hPa 0,0 l/m 2,3 km/h (1 Bft) W-SW 254 2 min 0,000 mm 1,2 UV-I 371 W/m 11,0 C 13,3 C 4,8 km/h (1 Bft) 100,00 %
28.09.2016 09:54 13,4 C 85 % 1028,8 hPa 0,0 l/m 2,4 km/h (1 Bft) W-SW 258 2 min 0,000 mm 1,2 UV-I 361 W/m 10,9 C 13,4 C 4,8 km/h (1 Bft) 100,00 %
28.09.2016 09:56 13,6 C 85 % 1028,9 hPa 0,0 l/m 1,5 km/h (1 Bft) W-SW 258 2 min 0,000 mm 1,1 UV-I 336 W/m 11,1 C 13,6 C 3,2 km/h (1 Bft) 100,00 %
28.09.2016 09:58 13,7 C 85 % 1029,0 hPa 0,0 l/m 2,6 km/h (1 Bft) SW 217 2 min 0,000 mm 1,1 UV-I 318 W/m 11,2 C 13,7 C 4,8 km/h (1 Bft) 100,00 %
28.09.2016 10:00 13,7 C 84 % 1029,0 hPa 0,0 l/m 4,1 km/h (1 Bft) W 266 2 min 0,000 mm 1,1 UV-I 309 W/m 11,0 C 13,7 C 6,4 km/h (2 Bft) 95,74 %
28.09.2016 10:02 13,8 C 84 % 1029,0 hPa 0,0 l/m 4,6 km/h (1 Bft) W 263 2 min 0,127 mm 1,2 UV-I 320 W/m 11,1 C 13,8 C 6,4 km/h (2 Bft) 97,87 %
28.09.2016 10:04 13,8 C 83 % 1029,0 hPa 0,0 l/m 4,1 km/h (1 Bft) SW 236 2 min 0,000 mm 1,2 UV-I 327 W/m 11,0 C 13,8 C 6,4 km/h (2 Bft) 97,92 %
28.09.2016 10:06 13,9 C 83 % 1029,0 hPa 0,0 l/m 3,5 km/h (1 Bft) SW 236 2 min 0,000 mm 1,2 UV-I 337 W/m 11,1 C 13,9 C 4,8 km/h (1 Bft) 100,00 %
28.09.2016 10:08 13,9 C 83 % 1028,9 hPa 0,0 l/m 3,8 km/h (1 Bft) SW 236 2 min 0,000 mm 1,3 UV-I 331 W/m 11,1 C 13,9 C 6,4 km/h (2 Bft) 100,00 %
28.09.2016 10:10 14,1 C 84 % 1028,9 hPa 0,0 l/m 1,3 km/h (1 Bft) W-SW 237 2 min 0,000 mm 1,3 UV-I 352 W/m 11,4 C 14,1 C 3,2 km/h (1 Bft) 97,87 %
28.09.2016 10:12 14,1 C 83 % 1028,9 hPa 0,0 l/m 2,1 km/h (1 Bft) W-SW 242 2 min 0,000 mm 1,3 UV-I 341 W/m 11,3 C 14,1 C 4,8 km/h (1 Bft) 97,37 %
28.09.2016 10:14 14,2 C 83 % 1028,9 hPa 0,0 l/m 3,9 km/h (1 Bft) S-SW 197 2 min 0,000 mm 1,3 UV-I 343 W/m 11,4 C 14,2 C 6,4 km/h (2 Bft) 100,00 %
28.09.2016 10:16 14,3 C 83 % 1028,8 hPa 0,0 l/m 4,9 km/h (1 Bft) S-SW 202 2 min 0,000 mm 1,3 UV-I 367 W/m 11,5 C 14,3 C 8,0 km/h (2 Bft) 100,00 %
28.09.2016 10:18 14,4 C 82 % 1028,8 hPa 0,0 l/m 1,4 km/h (1 Bft) S-SW 202 2 min 0,000 mm 1,3 UV-I 355 W/m 11,4 C 14,4 C 3,2 km/h (1 Bft) 100,00 %
28.09.2016 10:20 14,5 C 83 % 1028,8 hPa 0,0 l/m 2,3 km/h (1 Bft) S-SW 202 2 min 0,000 mm 1,4 UV-I 353 W/m 11,6 C 14,5 C 6,4 km/h (2 Bft) 98,00 %
28.09.2016 10:22 14,6 C 82 % 1028,8 hPa 0,0 l/m 3,7 km/h (1 Bft) S-SW 204 2 min 0,000 mm 1,4 UV-I 388 W/m 11,6 C 14,6 C 8,0 km/h (2 Bft) 100,00 %
28.09.2016 10:24 14,7 C 81 % 1028,7 hPa 0,0 l/m 4,3 km/h (1 Bft) S 191 2 min 0,000 mm 1,6 UV-I 434 W/m 11,5 C 14,7 C 6,4 km/h (2 Bft) 100,00 %
28.09.2016 10:26 14,8 C 81 % 1028,7 hPa 0,0 l/m 3,0 km/h (1 Bft) S-SO 153 2 min 0,000 mm 1,6 UV-I 444 W/m 11,6 C 14,8 C 6,4 km/h (2 Bft) 100,00 %
28.09.2016 10:28 14,8 C 80 % 1028,7 hPa 0,0 l/m 4,6 km/h (1 Bft) S-SW 208 2 min 0,000 mm 1,6 UV-I 414 W/m 11,4 C 14,8 C 8,0 km/h (2 Bft) 100,00 %
28.09.2016 10:30 14,9 C 80 % 1028,8 hPa 0,0 l/m 2,7 km/h (1 Bft) S 184 2 min 0,000 mm 1,7 UV-I 435 W/m 11,5 C 14,9 C 6,4 km/h (2 Bft) 100,00 %
28.09.2016 10:32 15,1 C 81 % 1028,7 hPa 0,0 l/m 2,6 km/h (1 Bft) S 184 2 min 0,000 mm 1,7 UV-I 456 W/m 11,9 C 15,1 C 4,8 km/h (1 Bft) 100,00 %
28.09.2016 10:34 15,2 C 80 % 1028,8 hPa 0,0 l/m 1,3 km/h (1 Bft) S-SO 163 2 min 0,000 mm 1,7 UV-I 460 W/m 11,8 C 15,2 C 3,2 km/h (1 Bft) 97,87 %
28.09.2016 10:36 15,3 C 79 % 1028,8 hPa 0,0 l/m 2,0 km/h (1 Bft) S-SO 151 2 min 0,000 mm 1,6 UV-I 419 W/m 11,7 C 15,3 C 3,2 km/h (1 Bft) 100,00 %
28.09.2016 10:38 15,4 C 78 % 1028,9 hPa 0,0 l/m 2,1 km/h (1 Bft) SO 145 2 min 0,000 mm 1,6 UV-I 388 W/m 11,6 C 15,4 C 4,8 km/h (1 Bft) 98,04 %
28.09.2016 10:40 15,4 C 77 % 1029,0 hPa 0,0 l/m 2,7 km/h (1 Bft) SW 220 2 min 0,000 mm 1,7 UV-I 409 W/m 11,4 C 15,4 C 4,8 km/h (1 Bft) 100,00 %
28.09.2016 10:42 15,6 C 78 % 1029,1 hPa 0,0 l/m 4,8 km/h (1 Bft) W 261 2 min 0,000 mm 1,6 UV-I 389 W/m 11,8 C 15,6 C 6,4 km/h (2 Bft) 100,00 %
28.09.2016 10:44 15,6 C 76 % 1029,2 hPa 0,0 l/m 3,3 km/h (1 Bft) W 266 2 min 0,000 mm 1,7 UV-I 391 W/m 11,4 C 15,6 C 6,4 km/h (2 Bft) 97,87 %
28.09.2016 10:46 15,6 C 77 % 1029,2 hPa 0,0 l/m 1,7 km/h (1 Bft) W 266 2 min 0,000 mm 1,8 UV-I 423 W/m 11,6 C 15,6 C 3,2 km/h (1 Bft) 100,00 %
28.09.2016 10:48 15,7 C 78 % 1029,2 hPa 0,0 l/m 2,2 km/h (1 Bft) W 266 2 min 0,000 mm 1,9 UV-I 468 W/m 11,9 C 15,7 C 3,2 km/h (1 Bft) 100,00 %
28.09.2016 10:50 15,7 C 77 % 1029,2 hPa 0,0 l/m 1,1 km/h (1 Bft) S-SW 202 2 min 0,000 mm 1,9 UV-I 490 W/m 11,7 C 15,7 C 3,2 km/h (1 Bft) 100,00 %
28.09.2016 10:52 15,8 C 77 % 1029,2 hPa 0,0 l/m 2,6 km/h (1 Bft) S 190 2 min 0,000 mm 1,8 UV-I 418 W/m 11,8 C 15,8 C 6,4 km/h (2 Bft) 100,00 %
28.09.2016 10:54 15,9 C 76 % 1029,1 hPa 0,0 l/m 1,3 km/h (1 Bft) S 190 2 min 0,000 mm 1,9 UV-I 428 W/m 11,7 C 15,9 C 3,2 km/h (1 Bft) 100,00 %
28.09.2016 10:56 16,1 C 76 % 1029,0 hPa 0,0 l/m 2,0 km/h (1 Bft) S-SW 192 2 min 0,000 mm 2,0 UV-I 544 W/m 11,9 C 16,1 C 4,8 km/h (1 Bft) 98,00 %
28.09.2016 10:58 16,2 C 75 % 1029,0 hPa 0,0 l/m 1,3 km/h (1 Bft) S-SW 192 2 min 0,000 mm 2,0 UV-I 549 W/m 11,8 C 16,2 C 4,8 km/h (1 Bft) 97,87 %
28.09.2016 11:00 16,3 C 76 % 1029,0 hPa 0,0 l/m 1,9 km/h (1 Bft) SW 224 2 min 0,228 mm 2,0 UV-I 494 W/m 12,1 C 16,3 C 4,8 km/h (1 Bft) 93,62 %
28.09.2016 11:02 16,4 C 73 % 1029,0 hPa 0,0 l/m 4,7 km/h (1 Bft) S-SW 209 2 min 0,000 mm 2,1 UV-I 497 W/m 11,5 C 16,4 C 8,0 km/h (2 Bft) 97,87 %
28.09.2016 11:04 16,6 C 72 % 1029,0 hPa 0,0 l/m 5,0 km/h (1 Bft) SW 234 2 min 0,000 mm 2,1 UV-I 512 W/m 11,5 C 16,6 C 6,4 km/h (2 Bft) 97,87 %
28.09.2016 11:06 16,6 C 72 % 1029,0 hPa 0,0 l/m 3,3 km/h (1 Bft) W-SW 254 2 min 0,000 mm 2,1 UV-I 526 W/m 11,5 C 16,6 C 4,8 km/h (1 Bft) 97,87 %
28.09.2016 11:08 16,7 C 73 % 1029,0 hPa 0,0 l/m 3,3 km/h (1 Bft) W-SW 254 2 min 0,000 mm 2,1 UV-I 492 W/m 11,8 C 16,7 C 6,4 km/h (2 Bft) 97,87 %
28.09.2016 11:10 16,8 C 73 % 1028,8 hPa 0,0 l/m 4,2 km/h (1 Bft) W-SW 257 2 min 0,000 mm 2,1 UV-I 521 W/m 11,9 C 16,8 C 4,8 km/h (1 Bft) 97,87 %
28.09.2016 11:12 16,8 C 71 % 1028,6 hPa 0,0 l/m 2,9 km/h (1 Bft) W-SW 256 2 min 0,000 mm 2,2 UV-I 535 W/m 11,5 C 16,8 C 4,8 km/h (1 Bft) 97,37 %
28.09.2016 11:14 16,9 C 72 % 1028,6 hPa 0,0 l/m 4,2 km/h (1 Bft) S 177 2 min 0,000 mm 2,0 UV-I 436 W/m 11,8 C 16,9 C 11,3 km/h (2 Bft) 98,00 %
28.09.2016 11:16 17,1 C 72 % 1028,6 hPa 0,0 l/m 2,0 km/h (1 Bft) S-SW 194 2 min 0,000 mm 2,0 UV-I 452 W/m 12,0 C 17,1 C 6,4 km/h (2 Bft) 96,00 %
28.09.2016 11:18 17,1 C 72 % 1028,7 hPa 0,0 l/m 3,3 km/h (1 Bft) W 274 2 min 0,000 mm 1,9 UV-I 401 W/m 12,0 C 17,1 C 6,4 km/h (2 Bft) 97,44 %
28.09.2016 11:20 17,2 C 72 % 1028,8 hPa 0,0 l/m 1,0 km/h (0 Bft) W 274 2 min 0,000 mm 1,8 UV-I 362 W/m 12,1 C 17,2 C 3,2 km/h (1 Bft) 95,74 %
28.09.2016 11:22 17,2 C 72 % 1028,7 hPa 0,0 l/m 2,0 km/h (1 Bft) W-SW 252 2 min 0,000 mm 1,8 UV-I 356 W/m 12,1 C 17,2 C 4,8 km/h (1 Bft) 97,87 %
28.09.2016 11:24 17,2 C 71 % 1028,7 hPa 0,0 l/m 3,3 km/h (1 Bft) W 259 2 min 0,000 mm 1,8 UV-I 352 W/m 11,9 C 17,2 C 6,4 km/h (2 Bft) 98,00 %
28.09.2016 11:26 17,2 C 71 % 1028,7 hPa 0,0 l/m 1,5 km/h (1 Bft) W 259 0 min 0,000 mm 1,8 UV-I 324 W/m 11,9 C 17,2 C 4,8 km/h (1 Bft) 100,00 %
28.09.2016 11:28 17,2 C 72 % 1028,7 hPa 0,0 l/m 1,6 km/h (1 Bft) W 260 2 min 0,000 mm 1,9 UV-I 338 W/m 12,1 C 17,2 C 4,8 km/h (1 Bft) 100,00 %
28.09.2016 11:30 17,2 C 72 % 1028,8 hPa 0,0 l/m 1,3 km/h (1 Bft) W 260 2 min 0,000 mm 1,9 UV-I 339 W/m 12,1 C 17,2 C 3,2 km/h (1 Bft) 100,00 %
28.09.2016 11:32 17,2 C 72 % 1028,7 hPa 0,0 l/m 2,6 km/h (1 Bft) W 262 0 min 0,000 mm 1,8 UV-I 323 W/m 12,1 C 17,2 C 4,8 km/h (1 Bft) 100,00 %
28.09.2016 11:34 17,2 C 72 % 1028,7 hPa 0,0 l/m 5,1 km/h (1 Bft) W 262 0 min 0,000 mm 1,8 UV-I 293 W/m 12,1 C 17,2 C 8,0 km/h (2 Bft) 100,00 %
28.09.2016 11:36 17,1 C 72 % 1028,8 hPa 0,0 l/m 3,5 km/h (1 Bft) W 266 0 min 0,000 mm 1,7 UV-I 267 W/m 12,0 C 17,1 C 4,8 km/h (1 Bft) 100,00 %
28.09.2016 11:38 17,1 C 72 % 1028,8 hPa 0,0 l/m 3,0 km/h (1 Bft) W-NW 290 0 min 0,000 mm 1,7 UV-I 276 W/m 12,0 C 17,1 C 4,8 km/h (1 Bft) 100,00 %
28.09.2016 11:40 17,1 C 72 % 1028,8 hPa 0,0 l/m 2,4 km/h (1 Bft) W 275 0 min 0,000 mm 1,8 UV-I 278 W/m 12,0 C 17,1 C 4,8 km/h (1 Bft) 100,00 %
28.09.2016 11:42 17,1 C 73 % 1028,8 hPa 0,0 l/m 2,2 km/h (1 Bft) W 273 0 min 0,000 mm 1,9 UV-I 311 W/m 12,2 C 17,1 C 4,8 km/h (1 Bft) 100,00 %
28.09.2016 11:44 17,1 C 74 % 1028,8 hPa 0,0 l/m 3,4 km/h (1 Bft) W-SW 256 2 min 0,000 mm 2,2 UV-I 392 W/m 12,4 C 17,1 C 6,4 km/h (2 Bft) 97,87 %
28.09.2016 11:46 17,1 C 74 % 1028,7 hPa 0,0 l/m 1,8 km/h (1 Bft) W 263 2 min 0,000 mm 2,4 UV-I 504 W/m 12,4 C 17,1 C 3,2 km/h (1 Bft) 100,00 %
28.09.2016 11:48 17,2 C 74 % 1028,6 hPa 0,0 l/m 1,4 km/h (1 Bft) W 267 2 min 0,000 mm 2,4 UV-I 529 W/m 12,5 C 17,2 C 3,2 km/h (1 Bft) 100,00 %
28.09.2016 11:50 17,2 C 74 % 1028,6 hPa 0,0 l/m 2,7 km/h (1 Bft) W 259 2 min 0,000 mm 2,4 UV-I 478 W/m 12,5 C 17,2 C 9,7 km/h (2 Bft) 95,74 %
28.09.2016 11:52 17,3 C 73 % 1028,6 hPa 0,0 l/m 6,3 km/h (2 Bft) W 259 2 min 0,000 mm 2,3 UV-I 428 W/m 12,4 C 17,3 C 9,7 km/h (2 Bft) 100,00 %
28.09.2016 11:54 17,3 C 73 % 1028,6 hPa 0,0 l/m 4,4 km/h (1 Bft) W-NW 292 2 min 0,000 mm 2,4 UV-I 474 W/m 12,4 C 17,3 C 6,4 km/h (2 Bft) 98,00 %
28.09.2016 11:56 17,3 C 73 % 1028,4 hPa 0,0 l/m 3,0 km/h (1 Bft) W-SW 242 2 min 0,000 mm 2,5 UV-I 491 W/m 12,4 C 17,3 C 6,4 km/h (2 Bft) 100,00 %
28.09.2016 11:58 17,3 C 72 % 1028,3 hPa 0,0 l/m 4,9 km/h (1 Bft) W 262 2 min 0,000 mm 2,7 UV-I 589 W/m 12,2 C 17,3 C 6,4 km/h (2 Bft) 100,00 %
28.09.2016 12:00 17,3 C 72 % 1028,3 hPa 0,0 l/m 3,9 km/h (1 Bft) W-SW 239 2 min 0,229 mm 2,3 UV-I 489 W/m 12,2 C 17,3 C 6,4 km/h (2 Bft) 97,92 %
28.09.2016 12:02 17,4 C 72 % 1028,3 hPa 0,0 l/m 4,2 km/h (1 Bft) SW 235 2 min 0,000 mm 2,2 UV-I 439 W/m 12,3 C 17,4 C 8,0 km/h (2 Bft) 100,00 %
28.09.2016 12:04 17,4 C 71 % 1028,3 hPa 0,0 l/m 6,1 km/h (2 Bft) W-SW 238 2 min 0,000 mm 2,0 UV-I 354 W/m 12,1 C 17,4 C 9,7 km/h (2 Bft) 100,00 %
28.09.2016 12:06 17,4 C 71 % 1028,2 hPa 0,0 l/m 3,7 km/h (1 Bft) SW 233 0 min 0,000 mm 1,8 UV-I 270 W/m 12,1 C 17,4 C 6,4 km/h (2 Bft) 100,00 %
28.09.2016 12:08 17,4 C 72 % 1028,2 hPa 0,0 l/m 5,6 km/h (1 Bft) W-SW 246 0 min 0,000 mm 1,8 UV-I 212 W/m 12,3 C 17,4 C 9,7 km/h (2 Bft) 93,62 %
28.09.2016 12:10 17,4 C 72 % 1028,2 hPa 0,0 l/m 4,7 km/h (1 Bft) W-SW 251 0 min 0,000 mm 1,8 UV-I 215 W/m 12,3 C 17,4 C 6,4 km/h (2 Bft) 97,87 %
28.09.2016 12:12 17,4 C 73 % 1028,2 hPa 0,0 l/m 4,0 km/h (1 Bft) W 259 0 min 0,000 mm 2,2 UV-I 315 W/m 12,5 C 17,4 C 6,4 km/h (2 Bft) 100,00 %
28.09.2016 12:14 17,5 C 73 % 1028,2 hPa 0,0 l/m 5,1 km/h (1 Bft) S 182 2 min 0,000 mm 2,2 UV-I 425 W/m 12,6 C 17,5 C 8,0 km/h (2 Bft) 100,00 %
28.09.2016 12:16 17,6 C 71 % 1028,2 hPa 0,0 l/m 4,2 km/h (1 Bft) S-SW 192 2 min 0,000 mm 2,2 UV-I 355 W/m 12,3 C 17,6 C 8,0 km/h (2 Bft) 100,00 %
28.09.2016 12:18 17,6 C 72 % 1028,1 hPa 0,0 l/m 4,3 km/h (1 Bft) S 182 2 min 0,000 mm 2,7 UV-I 488 W/m 12,5 C 17,6 C 8,0 km/h (2 Bft) 100,00 %
28.09.2016 12:20 17,7 C 72 % 1028,2 hPa 0,0 l/m 3,5 km/h (1 Bft) S-SW 209 2 min 0,000 mm 2,8 UV-I 597 W/m 12,6 C 17,7 C 4,8 km/h (1 Bft) 100,00 %
28.09.2016 12:22 17,7 C 72 % 1028,1 hPa 0,0 l/m 2,9 km/h (1 Bft) SW 232 2 min 0,000 mm 2,7 UV-I 547 W/m 12,6 C 17,7 C 6,4 km/h (2 Bft) 97,87 %
28.09.2016 12:24 17,8 C 72 % 1028,1 hPa 0,0 l/m 2,5 km/h (1 Bft) W 268 2 min 0,000 mm 2,9 UV-I 591 W/m 12,7 C 17,8 C 4,8 km/h (1 Bft) 100,00 %
28.09.2016 12:26 17,9 C 72 % 1028,1 hPa 0,0 l/m 4,1 km/h (1 Bft) W 275 2 min 0,000 mm 3,0 UV-I 617 W/m 12,8 C 17,9 C 9,7 km/h (2 Bft) 100,00 %
28.09.2016 12:28 17,9 C 71 % 1028,1 hPa 0,0 l/m 1,1 km/h (1 Bft) W 275 2 min 0,000 mm 3,0 UV-I 623 W/m 12,6 C 17,9 C 4,8 km/h (1 Bft) 100,00 %
28.09.2016 12:30 18,1 C 72 % 1028,1 hPa 0,0 l/m 2,4 km/h (1 Bft) W-NW 282 2 min 0,000 mm 3,0 UV-I 615 W/m 13,0 C 18,1 C 6,4 km/h (2 Bft) 97,87 %
28.09.2016 12:32 18,2 C 71 % 1028,2 hPa 0,0 l/m 2,9 km/h (1 Bft) W-NW 294 2 min 0,000 mm 3,0 UV-I 606 W/m 12,9 C 18,2 C 8,0 km/h (2 Bft) 100,00 %
28.09.2016 12:34 18,3 C 72 % 1028,1 hPa 0,0 l/m 2,7 km/h (1 Bft) W-SW 244 2 min 0,000 mm 3,0 UV-I 623 W/m 13,2 C 18,3 C 11,3 km/h (2 Bft) 100,00 %
28.09.2016 12:36 18,4 C 70 % 1028,1 hPa 0,0 l/m 4,2 km/h (1 Bft) W-SW 240 2 min 0,000 mm 3,1 UV-I 640 W/m 12,8 C 18,4 C 8,0 km/h (2 Bft) 97,92 %
28.09.2016 12:38 18,4 C 70 % 1028,1 hPa 0,0 l/m 3,4 km/h (1 Bft) N-NW 327 2 min 0,000 mm 3,1 UV-I 639 W/m 12,8 C 18,4 C 6,4 km/h (2 Bft) 100,00 %
28.09.2016 12:40 18,6 C 70 % 1028,1 hPa 0,0 l/m 2,7 km/h (1 Bft) W-NW 286 2 min 0,000 mm 3,1 UV-I 636 W/m 13,0 C 18,6 C 6,4 km/h (2 Bft) 100,00 %
28.09.2016 12:42 18,7 C 70 % 1028,1 hPa 0,0 l/m 3,7 km/h (1 Bft) N 9 2 min 0,000 mm 3,0 UV-I 593 W/m 13,1 C 18,7 C 6,4 km/h (2 Bft) 100,00 %
28.09.2016 12:44 18,7 C 71 % 1028,0 hPa 0,0 l/m 2,1 km/h (1 Bft) N-NW 333 2 min 0,000 mm 2,9 UV-I 549 W/m 13,3 C 18,7 C 6,4 km/h (2 Bft) 96,00 %
28.09.2016 12:46 18,8 C 70 % 1028,0 hPa 0,0 l/m 2,1 km/h (1 Bft) W-NW 303 2 min 0,000 mm 2,9 UV-I 550 W/m 13,2 C 18,8 C 4,8 km/h (1 Bft) 97,50 %
28.09.2016 12:48 18,8 C 70 % 1028,0 hPa 0,0 l/m 1,0 km/h (0 Bft) NW 304 2 min 0,000 mm 2,8 UV-I 504 W/m 13,2 C 18,8 C 3,2 km/h (1 Bft) 98,00 %
28.09.2016 12:50 18,9 C 69 % 1028,0 hPa 0,0 l/m 1,8 km/h (1 Bft) W-NW 297 2 min 0,000 mm 2,8 UV-I 525 W/m 13,1 C 18,9 C 3,2 km/h (1 Bft) 97,87 %
28.09.2016 12:52 18,9 C 71 % 1028,0 hPa 0,0 l/m 2,1 km/h (1 Bft) NW 306 2 min 0,000 mm 3,1 UV-I 610 W/m 13,5 C 18,9 C 4,8 km/h (1 Bft) 97,14 %
28.09.2016 12:54 19,0 C 68 % 1027,9 hPa 0,0 l/m 5,2 km/h (1 Bft) W-SW 258 2 min 0,000 mm 3,1 UV-I 646 W/m 13,0 C 19,0 C 8,0 km/h (2 Bft) 96,15 %
28.09.2016 12:56 19,1 C 69 % 1027,9 hPa 0,0 l/m 3,6 km/h (1 Bft) W-SW 254 2 min 0,000 mm 3,2 UV-I 656 W/m 13,3 C 19,1 C 6,4 km/h (2 Bft) 97,87 %
28.09.2016 12:58 19,2 C 68 % 1027,8 hPa 0,0 l/m 4,2 km/h (1 Bft) SW 234 2 min 0,000 mm 3,1 UV-I 647 W/m 13,1 C 19,2 C 8,0 km/h (2 Bft) 97,87 %
28.09.2016 13:00 19,2 C 68 % 1027,8 hPa 0,0 l/m 5,6 km/h (1 Bft) W 266 2 min 0,305 mm 3,1 UV-I 630 W/m 13,1 C 19,2 C 11,3 km/h (2 Bft) 95,74 %
28.09.2016 13:02 19,2 C 67 % 1027,7 hPa 0,0 l/m 1,8 km/h (1 Bft) W 279 2 min 0,000 mm 2,9 UV-I 589 W/m 12,9 C 19,2 C 4,8 km/h (1 Bft) 97,87 %
28.09.2016 13:04 19,3 C 67 % 1027,7 hPa 0,0 l/m 0,2 km/h (0 Bft) W 273 2 min 0,000 mm 3,2 UV-I 570 W/m 13,0 C 19,3 C 1,6 km/h (1 Bft) 93,62 %
28.09.2016 13:06 19,3 C 67 % 1027,7 hPa 0,0 l/m 0,1 km/h (0 Bft) W 273 2 min 0,000 mm 3,3 UV-I 687 W/m 13,0 C 19,3 C 1,6 km/h (1 Bft) 95,74 %
28.09.2016 13:08 19,3 C 67 % 1027,6 hPa 0,0 l/m 3,7 km/h (1 Bft) S-SW 209 2 min 0,000 mm 3,1 UV-I 650 W/m 13,0 C 19,3 C 11,3 km/h (2 Bft) 95,74 %
28.09.2016 13:10 19,4 C 67 % 1027,6 hPa 0,0 l/m 4,7 km/h (1 Bft) W-SW 249 2 min 0,000 mm 3,0 UV-I 610 W/m 13,1 C 19,4 C 8,0 km/h (2 Bft) 97,87 %
28.09.2016 13:12 19,5 C 66 % 1027,6 hPa 0,0 l/m 2,2 km/h (1 Bft) W-SW 249 2 min 0,000 mm 2,9 UV-I 563 W/m 13,0 C 19,5 C 3,2 km/h (1 Bft) 95,74 %
28.09.2016 13:14 19,5 C 67 % 1027,6 hPa 0,0 l/m 4,2 km/h (1 Bft) W-SW 241 2 min 0,000 mm 2,7 UV-I 477 W/m 13,2 C 19,5 C 6,4 km/h (2 Bft) 95,83 %
28.09.2016 13:16 19,5 C 67 % 1027,6 hPa 0,0 l/m 4,4 km/h (1 Bft) W-SW 257 2 min 0,000 mm 2,9 UV-I 477 W/m 13,2 C 19,5 C 9,7 km/h (2 Bft) 100,00 %
28.09.2016 13:18 19,6 C 68 % 1027,6 hPa 0,0 l/m 4,8 km/h (1 Bft) W-SW 257 2 min 0,000 mm 3,1 UV-I 584 W/m 13,5 C 19,6 C 8,0 km/h (2 Bft) 96,00 %
28.09.2016 13:20 19,6 C 67 % 1027,5 hPa 0,0 l/m 7,3 km/h (2 Bft) W-NW 296 2 min 0,000 mm 3,1 UV-I 668 W/m 13,3 C 19,2 C 12,9 km/h (3 Bft) 100,00 %
28.09.2016 13:22 19,6 C 66 % 1027,5 hPa 0,0 l/m 3,6 km/h (1 Bft) W 273 2 min 0,000 mm 3,0 UV-I 610 W/m 13,1 C 19,6 C 6,4 km/h (2 Bft) 100,00 %
28.09.2016 13:24 19,6 C 67 % 1027,5 hPa 0,0 l/m 4,0 km/h (1 Bft) NW 321 2 min 0,000 mm 3,0 UV-I 624 W/m 13,3 C 19,6 C 12,9 km/h (3 Bft) 95,74 %
28.09.2016 13:26 19,7 C 65 % 1027,5 hPa 0,0 l/m 7,7 km/h (2 Bft) W-SW 242 2 min 0,000 mm 3,0 UV-I 639 W/m 12,9 C 19,2 C 12,9 km/h (3 Bft) 100,00 %
28.09.2016 13:28 19,7 C 67 % 1027,5 hPa 0,0 l/m 6,0 km/h (2 Bft) W 269 2 min 0,000 mm 3,0 UV-I 633 W/m 13,4 C 19,7 C 11,3 km/h (2 Bft) 100,00 %
28.09.2016 13:30 19,7 C 66 % 1027,4 hPa 0,0 l/m 2,6 km/h (1 Bft) N 351 2 min 0,000 mm 2,9 UV-I 572 W/m 13,2 C 19,7 C 4,8 km/h (1 Bft) 97,37 %
28.09.2016 13:32 19,7 C 67 % 1027,3 hPa 0,0 l/m 6,1 km/h (2 Bft) W-SW 247 2 min 0,000 mm 2,7 UV-I 520 W/m 13,4 C 19,7 C 12,9 km/h (3 Bft) 97,87 %
28.09.2016 13:34 19,7 C 67 % 1027,3 hPa 0,0 l/m 3,9 km/h (1 Bft) W 261 2 min 0,000 mm 2,1 UV-I 446 W/m 13,4 C 19,7 C 6,4 km/h (2 Bft) 100,00 %
28.09.2016 13:36 19,7 C 67 % 1027,3 hPa 0,0 l/m 4,4 km/h (1 Bft) W-SW 258 2 min 0,000 mm 2,4 UV-I 435 W/m 13,4 C 19,7 C 8,0 km/h (2 Bft) 97,87 %
28.09.2016 13:38 19,8 C 68 % 1027,2 hPa 0,0 l/m 3,6 km/h (1 Bft) SW 234 2 min 0,000 mm 2,7 UV-I 506 W/m 13,7 C 19,8 C 6,4 km/h (2 Bft) 97,87 %
28.09.2016 13:40 19,8 C 68 % 1027,2 hPa 0,0 l/m 5,4 km/h (1 Bft) W 272 2 min 0,000 mm 2,9 UV-I 581 W/m 13,7 C 19,8 C 12,9 km/h (3 Bft) 97,87 %
28.09.2016 13:42 19,9 C 67 % 1027,3 hPa 0,0 l/m 7,2 km/h (2 Bft) W 263 2 min 0,000 mm 2,9 UV-I 599 W/m 13,6 C 19,6 C 11,3 km/h (2 Bft) 97,87 %
28.09.2016 13:44 20,0 C 66 % 1027,3 hPa 0,0 l/m 6,0 km/h (2 Bft) W 266 2 min 0,000 mm 2,8 UV-I 584 W/m 13,4 C 20,0 C 11,3 km/h (2 Bft) 100,00 %
28.09.2016 13:46 20,0 C 66 % 1027,2 hPa 0,0 l/m 7,6 km/h (2 Bft) W-SW 252 2 min 0,000 mm 2,9 UV-I 593 W/m 13,4 C 19,5 C 12,9 km/h (3 Bft) 97,87 %
28.09.2016 13:48 20,0 C 67 % 1027,1 hPa 0,0 l/m 5,1 km/h (1 Bft) SW 229 2 min 0,000 mm 2,9 UV-I 618 W/m 13,7 C 20,0 C 11,3 km/h (2 Bft) 100,00 %
28.09.2016 13:50 20,1 C 68 % 1027,2 hPa 0,0 l/m 3,1 km/h (1 Bft) W-SW 242 2 min 0,000 mm 2,9 UV-I 624 W/m 14,0 C 20,1 C 8,0 km/h (2 Bft) 100,00 %
28.09.2016 13:52 20,2 C 68 % 1027,1 hPa 0,0 l/m 5,2 km/h (1 Bft) W-SW 248 2 min 0,000 mm 2,9 UV-I 621 W/m 14,1 C 20,2 C 12,9 km/h (3 Bft) 100,00 %
28.09.2016 13:54 20,3 C 66 % 1027,0 hPa 0,0 l/m 10,9 km/h (2 Bft) W-SW 242 2 min 0,000 mm 2,9 UV-I 618 W/m 13,7 C 18,7 C 14,5 km/h (3 Bft) 100,00 %
28.09.2016 13:56 20,3 C 66 % 1027,0 hPa 0,0 l/m 5,2 km/h (1 Bft) W-NW 300 2 min 0,000 mm 2,9 UV-I 617 W/m 13,7 C 20,3 C 9,7 km/h (2 Bft) 100,00 %
28.09.2016 13:58 20,4 C 65 % 1027,0 hPa 0,0 l/m 7,5 km/h (2 Bft) W-NW 298 2 min 0,000 mm 2,8 UV-I 594 W/m 13,6 C 20,0 C 12,9 km/h (3 Bft) 97,87 %
28.09.2016 14:00 20,4 C 66 % 1026,9 hPa 0,0 l/m 6,3 km/h (2 Bft) W-SW 248 2 min 0,355 mm 2,7 UV-I 571 W/m 13,8 C 20,4 C 11,3 km/h (2 Bft) 97,87 %
28.09.2016 14:02 20,4 C 65 % 1026,9 hPa 0,0 l/m 6,8 km/h (2 Bft) SW 230 2 min 0,000 mm 2,5 UV-I 506 W/m 13,6 C 20,2 C 11,3 km/h (2 Bft) 100,00 %
28.09.2016 14:04 20,4 C 65 % 1026,8 hPa 0,0 l/m 5,3 km/h (1 Bft) W 259 2 min 0,000 mm 2,6 UV-I 493 W/m 13,6 C 20,4 C 9,7 km/h (2 Bft) 97,87 %
28.09.2016 14:06 20,4 C 65 % 1026,8 hPa 0,0 l/m 4,4 km/h (1 Bft) W-NW 286 2 min 0,000 mm 2,6 UV-I 577 W/m 13,6 C 20,4 C 9,7 km/h (2 Bft) 97,87 %
28.09.2016 14:08 20,4 C 64 % 1026,8 hPa 0,0 l/m 6,5 km/h (2 Bft) W 281 2 min 0,000 mm 2,5 UV-I 548 W/m 13,4 C 20,4 C 12,9 km/h (3 Bft) 100,00 %
28.09.2016 14:10 20,4 C 64 % 1026,8 hPa 0,0 l/m 4,5 km/h (1 Bft) SW 236 2 min 0,000 mm 2,2 UV-I 531 W/m 13,4 C 20,4 C 8,0 km/h (2 Bft) 100,00 %
28.09.2016 14:12 20,4 C 66 % 1026,7 hPa 0,0 l/m 6,6 km/h (2 Bft) W-SW 252 2 min 0,000 mm 2,6 UV-I 558 W/m 13,8 C 20,3 C 11,3 km/h (2 Bft) 100,00 %
28.09.2016 14:14 20,4 C 64 % 1026,6 hPa 0,0 l/m 6,8 km/h (2 Bft) W 275 2 min 0,000 mm 2,6 UV-I 582 W/m 13,4 C 20,2 C 12,9 km/h (3 Bft) 100,00 %
28.09.2016 14:16 20,4 C 64 % 1026,7 hPa 0,0 l/m 6,5 km/h (2 Bft) S-SW 194 2 min 0,000 mm 2,6 UV-I 583 W/m 13,4 C 20,4 C 9,7 km/h (2 Bft) 100,00 %
28.09.2016 14:18 20,4 C 64 % 1026,6 hPa 0,0 l/m 4,4 km/h (1 Bft) NW 308 2 min 0,000 mm 2,6 UV-I 574 W/m 13,4 C 20,4 C 8,0 km/h (2 Bft) 100,00 %
28.09.2016 14:20 20,4 C 64 % 1026,6 hPa 0,0 l/m 5,5 km/h (1 Bft) NW 326 2 min 0,000 mm 2,6 UV-I 587 W/m 13,4 C 20,4 C 14,5 km/h (3 Bft) 100,00 %
28.09.2016 14:22 20,5 C 65 % 1026,8 hPa 0,0 l/m 6,0 km/h (2 Bft) W 277 2 min 0,000 mm 2,6 UV-I 595 W/m 13,7 C 20,5 C 12,9 km/h (3 Bft) 100,00 %
28.09.2016 14:24 20,6 C 66 % 1026,7 hPa 0,0 l/m 3,9 km/h (1 Bft) W-SW 245 2 min 0,000 mm 2,6 UV-I 600 W/m 14,0 C 20,6 C 9,7 km/h (2 Bft) 100,00 %
28.09.2016 14:26 20,7 C 65 % 1026,7 hPa 0,0 l/m 6,6 km/h (2 Bft) W-SW 243 2 min 0,000 mm 2,6 UV-I 586 W/m 13,9 C 20,6 C 12,9 km/h (3 Bft) 100,00 %
28.09.2016 14:28 20,7 C 63 % 1026,6 hPa 0,0 l/m 5,6 km/h (1 Bft) W 270 2 min 0,000 mm 2,6 UV-I 590 W/m 13,4 C 20,7 C 9,7 km/h (2 Bft) 100,00 %
28.09.2016 14:30 20,8 C 63 % 1026,5 hPa 0,0 l/m 6,8 km/h (2 Bft) SW 228 2 min 0,000 mm 2,5 UV-I 566 W/m 13,5 C 20,7 C 11,3 km/h (2 Bft) 100,00 %
28.09.2016 14:32 20,8 C 63 % 1026,5 hPa 0,0 l/m 5,3 km/h (1 Bft) W-SW 248 2 min 0,000 mm 2,4 UV-I 546 W/m 13,5 C 20,8 C 8,0 km/h (2 Bft) 95,74 %
28.09.2016 14:34 20,9 C 63 % 1026,4 hPa 0,0 l/m 6,0 km/h (2 Bft) W 277 2 min 0,000 mm 2,4 UV-I 544 W/m 13,6 C 20,9 C 11,3 km/h (2 Bft) 95,74 %
28.09.2016 14:36 20,9 C 63 % 1026,4 hPa 0,0 l/m 5,2 km/h (1 Bft) W 259 2 min 0,000 mm 2,4 UV-I 549 W/m 13,6 C 20,9 C 8,0 km/h (2 Bft) 95,74 %
28.09.2016 14:38 21,0 C 62 % 1026,3 hPa 0,0 l/m 8,7 km/h (2 Bft) W-SW 257 2 min 0,000 mm 2,3 UV-I 512 W/m 13,4 C 20,2 C 12,9 km/h (3 Bft) 97,92 %
28.09.2016 14:40 21,1 C 63 % 1026,2 hPa 0,0 l/m 5,6 km/h (1 Bft) W 263 2 min 0,000 mm 2,2 UV-I 501 W/m 13,8 C 21,1 C 9,7 km/h (2 Bft) 97,87 %
28.09.2016 14:42 21,2 C 64 % 1026,1 hPa 0,0 l/m 5,2 km/h (1 Bft) SW 235 2 min 0,000 mm 2,2 UV-I 518 W/m 14,1 C 21,2 C 9,7 km/h (2 Bft) 95,74 %
28.09.2016 14:44 21,2 C 61 % 1026,2 hPa 0,0 l/m 8,9 km/h (2 Bft) W-SW 237 2 min 0,000 mm 2,2 UV-I 526 W/m 13,4 C 20,3 C 14,5 km/h (3 Bft) 97,37 %
28.09.2016 14:46 21,3 C 63 % 1026,1 hPa 0,0 l/m 4,4 km/h (1 Bft) SW 217 2 min 0,000 mm 2,2 UV-I 501 W/m 14,0 C 21,3 C 8,0 km/h (2 Bft) 96,23 %
28.09.2016 14:48 21,3 C 63 % 1026,1 hPa 0,0 l/m 2,8 km/h (1 Bft) W-SW 242 2 min 0,000 mm 2,1 UV-I 480 W/m 14,0 C 21,3 C 4,8 km/h (1 Bft) 95,74 %
28.09.2016 14:50 21,4 C 63 % 1026,0 hPa 0,0 l/m 5,3 km/h (1 Bft) W 265 2 min 0,000 mm 2,0 UV-I 424 W/m 14,1 C 21,4 C 11,3 km/h (2 Bft) 97,37 %
28.09.2016 14:52 21,4 C 62 % 1026,1 hPa 0,0 l/m 2,5 km/h (1 Bft) W-SW 247 2 min 0,000 mm 2,0 UV-I 448 W/m 13,8 C 21,4 C 9,7 km/h (2 Bft) 97,87 %
28.09.2016 14:54 21,5 C 64 % 1026,1 hPa 0,0 l/m 0,9 km/h (0 Bft) W-SW 247 2 min 0,000 mm 2,0 UV-I 458 W/m 14,4 C 21,5 C 3,2 km/h (1 Bft) 95,74 %
28.09.2016 14:56 21,6 C 60 % 1026,1 hPa 0,0 l/m 5,4 km/h (1 Bft) W 280 2 min 0,000 mm 1,8 UV-I 395 W/m 13,5 C 21,6 C 11,3 km/h (2 Bft) 97,87 %
28.09.2016 14:58 21,6 C 60 % 1026,1 hPa 0,0 l/m 4,7 km/h (1 Bft) W-SW 247 2 min 0,000 mm 1,8 UV-I 385 W/m 13,5 C 21,6 C 9,7 km/h (2 Bft) 97,87 %
28.09.2016 15:00 21,6 C 61 % 1026,1 hPa 0,0 l/m 3,5 km/h (1 Bft) W 273 2 min 0,000 mm 1,8 UV-I 394 W/m 13,7 C 21,6 C 4,8 km/h (1 Bft) 97,87 %
28.09.2016 15:02 21,6 C 61 % 1026,0 hPa 0,0 l/m 5,0 km/h (1 Bft) W 278 2 min 0,330 mm 1,8 UV-I 437 W/m 13,7 C 21,6 C 8,0 km/h (2 Bft) 98,00 %
28.09.2016 15:04 21,6 C 61 % 1026,0 hPa 0,0 l/m 2,7 km/h (1 Bft) W 263 2 min 0,000 mm 1,9 UV-I 471 W/m 13,7 C 21,6 C 4,8 km/h (1 Bft) 95,74 %
28.09.2016 15:06 21,7 C 61 % 1026,0 hPa 0,0 l/m 5,5 km/h (1 Bft) W 261 2 min 0,000 mm 1,9 UV-I 474 W/m 13,8 C 21,7 C 11,3 km/h (2 Bft) 97,87 %
28.09.2016 15:08 21,7 C 61 % 1026,1 hPa 0,0 l/m 6,1 km/h (2 Bft) W 274 2 min 0,000 mm 1,8 UV-I 425 W/m 13,8 C 21,7 C 14,5 km/h (3 Bft) 97,87 %
28.09.2016 15:10 21,7 C 61 % 1026,1 hPa 0,0 l/m 5,3 km/h (1 Bft) W-SW 246 2 min 0,000 mm 1,7 UV-I 403 W/m 13,8 C 21,7 C 12,9 km/h (3 Bft) 97,87 %
28.09.2016 15:12 21,6 C 60 % 1026,0 hPa 0,0 l/m 6,9 km/h (2 Bft) W-NW 294 2 min 0,000 mm 1,6 UV-I 344 W/m 13,5 C 21,4 C 12,9 km/h (3 Bft) 100,00 %
28.09.2016 15:14 21,6 C 61 % 1026,0 hPa 0,0 l/m 2,8 km/h (1 Bft) SW 232 2 min 0,000 mm 1,6 UV-I 368 W/m 13,7 C 21,6 C 4,8 km/h (1 Bft) 100,00 %
28.09.2016 15:16 21,7 C 60 % 1026,0 hPa 0,0 l/m 4,7 km/h (1 Bft) W 261 2 min 0,000 mm 1,6 UV-I 369 W/m 13,6 C 21,7 C 9,7 km/h (2 Bft) 95,74 %
28.09.2016 15:18 21,7 C 61 % 1025,9 hPa 0,0 l/m 5,9 km/h (2 Bft) W 276 2 min 0,000 mm 1,7 UV-I 417 W/m 13,8 C 21,7 C 11,3 km/h (2 Bft) 100,00 %
28.09.2016 15:20 21,7 C 61 % 1025,9 hPa 0,0 l/m 6,0 km/h (2 Bft) W 262 2 min 0,000 mm 1,7 UV-I 415 W/m 13,8 C 21,7 C 11,3 km/h (2 Bft) 100,00 %
28.09.2016 15:22 21,7 C 62 % 1025,9 hPa 0,0 l/m 3,3 km/h (1 Bft) W-SW 252 2 min 0,000 mm 1,6 UV-I 421 W/m 14,1 C 21,7 C 6,4 km/h (2 Bft) 100,00 %
28.09.2016 15:24 21,7 C 61 % 1025,9 hPa 0,0 l/m 5,7 km/h (1 Bft) W-SW 253 2 min 0,000 mm 1,7 UV-I 462 W/m 13,8 C 21,7 C 12,9 km/h (3 Bft) 100,00 %
28.09.2016 15:26 21,7 C 62 % 1025,9 hPa 0,0 l/m 3,7 km/h (1 Bft) W-SW 254 2 min 0,000 mm 1,6 UV-I 447 W/m 14,1 C 21,7 C 6,4 km/h (2 Bft) 100,00 %
28.09.2016 15:28 21,7 C 61 % 1025,9 hPa 0,0 l/m 5,5 km/h (1 Bft) W 279 2 min 0,000 mm 1,6 UV-I 460 W/m 13,8 C 21,7 C 12,9 km/h (3 Bft) 97,87 %
28.09.2016 15:30 21,8 C 61 % 1025,9 hPa 0,0 l/m 5,2 km/h (1 Bft) W-NW 286 2 min 0,000 mm 1,6 UV-I 467 W/m 13,9 C 21,8 C 12,9 km/h (3 Bft) 100,00 %
28.09.2016 15:32 21,8 C 62 % 1025,8 hPa 0,0 l/m 3,7 km/h (1 Bft) W-SW 243 2 min 0,000 mm 1,6 UV-I 488 W/m 14,2 C 21,8 C 8,0 km/h (2 Bft) 100,00 %
28.09.2016 15:34 21,9 C 61 % 1025,7 hPa 0,0 l/m 5,4 km/h (1 Bft) W-SW 242 2 min 0,000 mm 1,5 UV-I 437 W/m 14,0 C 21,9 C 14,5 km/h (3 Bft) 100,00 %
28.09.2016 15:36 21,9 C 60 % 1025,6 hPa 0,0 l/m 7,5 km/h (2 Bft) W-SW 240 2 min 0,000 mm 1,4 UV-I 374 W/m 13,8 C 21,5 C 16,1 km/h (3 Bft) 100,00 %
28.09.2016 15:38 21,9 C 60 % 1025,7 hPa 0,0 l/m 3,0 km/h (1 Bft) W-SW 246 2 min 0,000 mm 1,4 UV-I 377 W/m 13,8 C 21,9 C 6,4 km/h (2 Bft) 100,00 %
28.09.2016 15:40 21,9 C 60 % 1025,7 hPa 0,0 l/m 4,5 km/h (1 Bft) W-SW 256 2 min 0,000 mm 1,3 UV-I 339 W/m 13,8 C 21,9 C 8,0 km/h (2 Bft) 100,00 %
28.09.2016 15:42 21,9 C 60 % 1025,7 hPa 0,0 l/m 5,9 km/h (2 Bft) W 273 2 min 0,000 mm 1,3 UV-I 329 W/m 13,8 C 21,9 C 11,3 km/h (2 Bft) 96,00 %
28.09.2016 15:44 21,8 C 60 % 1025,7 hPa 0,0 l/m 6,2 km/h (2 Bft) W-NW 298 2 min 0,000 mm 1,3 UV-I 336 W/m 13,7 C 21,8 C 11,3 km/h (2 Bft) 95,74 %
28.09.2016 15:46 21,8 C 61 % 1025,7 hPa 0,0 l/m 4,6 km/h (1 Bft) W 265 2 min 0,000 mm 1,3 UV-I 339 W/m 13,9 C 21,8 C 11,3 km/h (2 Bft) 100,00 %
28.09.2016 15:48 21,8 C 61 % 1025,6 hPa 0,0 l/m 3,0 km/h (1 Bft) W-SW 251 2 min 0,000 mm 1,2 UV-I 320 W/m 13,9 C 21,8 C 6,4 km/h (2 Bft) 97,92 %
28.09.2016 15:50 21,8 C 61 % 1025,7 hPa 0,0 l/m 6,9 km/h (2 Bft) W-SW 242 2 min 0,000 mm 1,2 UV-I 313 W/m 13,9 C 21,6 C 12,9 km/h (3 Bft) 100,00 %
28.09.2016 15:52 21,8 C 61 % 1025,6 hPa 0,0 l/m 4,7 km/h (1 Bft) W-SW 254 2 min 0,000 mm 1,1 UV-I 311 W/m 13,9 C 21,8 C 8,0 km/h (2 Bft) 97,87 %
28.09.2016 15:54 21,8 C 61 % 1025,6 hPa 0,0 l/m 6,2 km/h (2 Bft) SW 230 2 min 0,000 mm 1,1 UV-I 311 W/m 13,9 C 21,8 C 11,3 km/h (2 Bft) 100,00 %
28.09.2016 15:56 21,8 C 62 % 1025,6 hPa 0,0 l/m 3,5 km/h (1 Bft) W 262 2 min 0,000 mm 1,1 UV-I 294 W/m 14,2 C 21,8 C 6,4 km/h (2 Bft) 97,87 %
28.09.2016 15:58 21,8 C 62 % 1025,6 hPa 0,0 l/m 3,6 km/h (1 Bft) W-SW 243 0 min 0,000 mm 1,0 UV-I 238 W/m 14,2 C 21,8 C 6,4 km/h (2 Bft) 100,00 %
28.09.2016 16:00 21,8 C 61 % 1025,6 hPa 0,0 l/m 4,7 km/h (1 Bft) W 271 2 min 0,000 mm 1,0 UV-I 252 W/m 13,9 C 21,8 C 12,9 km/h (3 Bft) 100,00 %
28.09.2016 16:02 21,8 C 61 % 1025,6 hPa 0,0 l/m 5,2 km/h (1 Bft) W-SW 257 2 min 0,254 mm 1,0 UV-I 250 W/m 13,9 C 21,8 C 12,9 km/h (3 Bft) 100,00 %
28.09.2016 16:04 21,8 C 61 % 1025,6 hPa 0,0 l/m 7,8 km/h (2 Bft) W-SW 249 0 min 0,000 mm 0,9 UV-I 230 W/m 13,9 C 21,3 C 12,9 km/h (3 Bft) 100,00 %
28.09.2016 16:06 21,7 C 61 % 1025,6 hPa 0,0 l/m 3,9 km/h (1 Bft) W 266 2 min 0,000 mm 0,9 UV-I 239 W/m 13,8 C 21,7 C 6,4 km/h (2 Bft) 100,00 %
28.09.2016 16:08 21,7 C 62 % 1025,6 hPa 0,0 l/m 4,1 km/h (1 Bft) W 266 2 min 0,000 mm 0,9 UV-I 227 W/m 14,1 C 21,7 C 6,4 km/h (2 Bft) 100,00 %
28.09.2016 16:10 21,7 C 62 % 1025,6 hPa 0,0 l/m 3,6 km/h (1 Bft) W 265 2 min 0,000 mm 0,9 UV-I 241 W/m 14,1 C 21,7 C 4,8 km/h (1 Bft) 100,00 %
28.09.2016 16:12 21,7 C 62 % 1025,6 hPa 0,0 l/m 3,2 km/h (1 Bft) W 262 2 min 0,000 mm 0,8 UV-I 242 W/m 14,1 C 21,7 C 9,7 km/h (2 Bft) 100,00 %
28.09.2016 16:14 21,7 C 62 % 1025,5 hPa 0,0 l/m 3,9 km/h (1 Bft) W 274 2 min 0,000 mm 0,8 UV-I 248 W/m 14,1 C 21,7 C 6,4 km/h (2 Bft) 100,00 %
28.09.2016 16:16 21,7 C 62 % 1025,5 hPa 0,0 l/m 3,2 km/h (1 Bft) W 270 2 min 0,000 mm 0,8 UV-I 239 W/m 14,1 C 21,7 C 4,8 km/h (1 Bft) 100,00 %
28.09.2016 16:18 21,7 C 63 % 1025,6 hPa 0,0 l/m 2,9 km/h (1 Bft) W-SW 250 0 min 0,000 mm 0,8 UV-I 213 W/m 14,3 C 21,7 C 6,4 km/h (2 Bft) 96,00 %
28.09.2016 16:20 21,6 C 63 % 1025,6 hPa 0,0 l/m 5,1 km/h (1 Bft) W-SW 257 0 min 0,000 mm 0,7 UV-I 204 W/m 14,2 C 21,6 C 8,0 km/h (2 Bft) 97,87 %
28.09.2016 16:22 21,6 C 63 % 1025,6 hPa 0,0 l/m 5,3 km/h (1 Bft) W 261 0 min 0,000 mm 0,7 UV-I 198 W/m 14,2 C 21,6 C 9,7 km/h (2 Bft) 100,00 %
28.09.2016 16:24 21,6 C 61 % 1025,5 hPa 0,0 l/m 8,3 km/h (2 Bft) W-SW 250 0 min 0,000 mm 0,7 UV-I 194 W/m 13,7 C 20,9 C 20,9 km/h (4 Bft) 97,87 %
28.09.2016 16:26 21,6 C 61 % 1025,6 hPa 0,0 l/m 4,9 km/h (1 Bft) W 268 0 min 0,000 mm 0,7 UV-I 203 W/m 13,7 C 21,6 C 8,0 km/h (2 Bft) 100,00 %
28.09.2016 16:28 21,5 C 62 % 1025,6 hPa 0,0 l/m 6,5 km/h (2 Bft) W 269 2 min 0,000 mm 0,7 UV-I 205 W/m 13,9 C 21,5 C 16,1 km/h (3 Bft) 97,87 %
28.09.2016 16:30 21,4 C 61 % 1025,5 hPa 0,0 l/m 6,3 km/h (2 Bft) NW 311 0 min 0,000 mm 0,6 UV-I 195 W/m 13,6 C 21,4 C 14,5 km/h (3 Bft) 95,92 %
28.09.2016 16:32 21,4 C 60 % 1025,5 hPa 0,0 l/m 6,6 km/h (2 Bft) SW 221 0 min 0,000 mm 0,6 UV-I 193 W/m 13,3 C 21,3 C 11,3 km/h (2 Bft) 97,92 %
28.09.2016 16:34 21,3 C 60 % 1025,4 hPa 0,0 l/m 7,4 km/h (2 Bft) W-SW 242 2 min 0,000 mm 0,6 UV-I 195 W/m 13,2 C 20,9 C 12,9 km/h (3 Bft) 95,74 %
28.09.2016 16:36 21,3 C 60 % 1025,5 hPa 0,0 l/m 7,1 km/h (2 Bft) W 281 0 min 0,000 mm 0,6 UV-I 187 W/m 13,2 C 21,0 C 12,9 km/h (3 Bft) 98,00 %
28.09.2016 16:38 21,2 C 60 % 1025,5 hPa 0,0 l/m 8,6 km/h (2 Bft) W 267 0 min 0,000 mm 0,6 UV-I 179 W/m 13,1 C 20,4 C 16,1 km/h (3 Bft) 97,96 %
28.09.2016 16:40 21,2 C 61 % 1025,5 hPa 0,0 l/m 6,4 km/h (2 Bft) W-SW 250 0 min 0,000 mm 0,6 UV-I 170 W/m 13,4 C 21,2 C 11,3 km/h (2 Bft) 97,30 %
28.09.2016 16:42 21,1 C 61 % 1025,5 hPa 0,0 l/m 5,5 km/h (1 Bft) W-SW 243 0 min 0,000 mm 0,5 UV-I 155 W/m 13,3 C 21,1 C 9,7 km/h (2 Bft) 93,62 %
28.09.2016 16:44 20,9 C 62 % 1025,5 hPa 0,0 l/m 6,2 km/h (2 Bft) W-SW 255 0 min 0,000 mm 0,5 UV-I 151 W/m 13,3 C 20,9 C 14,5 km/h (3 Bft) 97,87 %
28.09.2016 16:46 20,6 C 63 % 1025,5 hPa 0,0 l/m 7,5 km/h (2 Bft) W 279 0 min 0,000 mm 0,5 UV-I 149 W/m 13,3 C 20,2 C 12,9 km/h (3 Bft) 97,87 %
28.09.2016 16:48 20,4 C 63 % 1025,5 hPa 0,0 l/m 8,0 km/h (2 Bft) N-NW 336 0 min 0,000 mm 0,5 UV-I 148 W/m 13,1 C 19,8 C 16,1 km/h (3 Bft) 92,00 %
28.09.2016 16:50 20,3 C 64 % 1025,6 hPa 0,0 l/m 7,6 km/h (2 Bft) W 268 0 min 0,000 mm 0,5 UV-I 158 W/m 13,3 C 19,8 C 14,5 km/h (3 Bft) 97,87 %
28.09.2016 16:52 20,2 C 65 % 1025,5 hPa 0,0 l/m 4,2 km/h (1 Bft) W-NW 285 0 min 0,000 mm 0,5 UV-I 163 W/m 13,4 C 20,2 C 9,7 km/h (2 Bft) 97,87 %
28.09.2016 16:54 20,1 C 65 % 1025,6 hPa 0,0 l/m 4,1 km/h (1 Bft) W-NW 283 0 min 0,000 mm 0,5 UV-I 165 W/m 13,3 C 20,1 C 6,4 km/h (2 Bft) 98,00 %
28.09.2016 16:56 20,1 C 65 % 1025,6 hPa 0,0 l/m 5,9 km/h (2 Bft) W-SW 249 2 min 0,000 mm 0,2 UV-I 166 W/m 13,3 C 20,1 C 11,3 km/h (2 Bft) 97,87 %
28.09.2016 16:58 20,1 C 66 % 1025,7 hPa 0,0 l/m 3,7 km/h (1 Bft) SW 225 0 min 0,000 mm 0,0 UV-I 159 W/m 13,5 C 20,1 C 6,4 km/h (2 Bft) 97,87 %
28.09.2016 17:00 20,1 C 66 % 1025,7 hPa 0,0 l/m 5,2 km/h (1 Bft) W 262 0 min 0,000 mm 0,0 UV-I 154 W/m 13,5 C 20,1 C 14,5 km/h (3 Bft) 94,74 %
28.09.2016 17:02 20,1 C 65 % 1025,7 hPa 0,0 l/m 7,3 km/h (2 Bft) W 279 2 min 0,153 mm 0,0 UV-I 159 W/m 13,3 C 19,7 C 16,1 km/h (3 Bft) 100,00 %
28.09.2016 17:04 20,0 C 65 % 1025,7 hPa 0,0 l/m 6,4 km/h (2 Bft) W 259 2 min 0,000 mm 0,0 UV-I 165 W/m 13,2 C 20,0 C 12,9 km/h (3 Bft) 100,00 %
28.09.2016 17:06 20,1 C 64 % 1025,7 hPa 0,0 l/m 13,5 km/h (3 Bft) W-SW 239 2 min 0,000 mm 0,0 UV-I 176 W/m 13,1 C 17,7 C 22,5 km/h (4 Bft) 100,00 %
28.09.2016 17:08 20,1 C 64 % 1025,7 hPa 0,0 l/m 10,1 km/h (2 Bft) W 276 2 min 0,000 mm 0,0 UV-I 186 W/m 13,1 C 18,7 C 16,1 km/h (3 Bft) 97,87 %
28.09.2016 17:10 20,1 C 65 % 1025,7 hPa 0,0 l/m 7,0 km/h (2 Bft) W-SW 244 2 min 0,000 mm 0,0 UV-I 169 W/m 13,3 C 19,9 C 14,5 km/h (3 Bft) 100,00 %
28.09.2016 17:12 20,1 C 65 % 1025,7 hPa 0,0 l/m 6,0 km/h (2 Bft) W 273 2 min 0,000 mm 0,0 UV-I 174 W/m 13,3 C 20,1 C 11,3 km/h (2 Bft) 97,92 %
28.09.2016 17:14 20,1 C 65 % 1025,7 hPa 0,0 l/m 5,0 km/h (1 Bft) SW 236 2 min 0,000 mm 0,0 UV-I 171 W/m 13,3 C 20,1 C 6,4 km/h (2 Bft) 97,87 %
28.09.2016 17:16 20,1 C 65 % 1025,8 hPa 0,0 l/m 5,1 km/h (1 Bft) W-SW 250 2 min 0,000 mm 0,0 UV-I 164 W/m 13,3 C 20,1 C 11,3 km/h (2 Bft) 100,00 %
28.09.2016 17:18 20,0 C 65 % 1025,7 hPa 0,0 l/m 8,0 km/h (2 Bft) W 275 2 min 0,000 mm 0,0 UV-I 162 W/m 13,2 C 19,4 C 14,5 km/h (3 Bft) 100,00 %
28.09.2016 17:20 20,0 C 64 % 1025,8 hPa 0,0 l/m 7,1 km/h (2 Bft) W-SW 243 2 min 0,000 mm 0,0 UV-I 157 W/m 13,0 C 19,7 C 14,5 km/h (3 Bft) 100,00 %
28.09.2016 17:22 20,0 C 66 % 1025,7 hPa 0,0 l/m 3,6 km/h (1 Bft) W-SW 246 2 min 0,000 mm 0,0 UV-I 153 W/m 13,4 C 20,0 C 6,4 km/h (2 Bft) 100,00 %
28.09.2016 17:24 19,9 C 66 % 1025,7 hPa 0,0 l/m 3,8 km/h (1 Bft) W-SW 238 2 min 0,000 mm 0,0 UV-I 156 W/m 13,4 C 19,9 C 9,7 km/h (2 Bft) 97,87 %
28.09.2016 17:26 19,9 C 66 % 1025,8 hPa 0,0 l/m 7,0 km/h (2 Bft) W-NW 288 2 min 0,000 mm 0,0 UV-I 153 W/m 13,4 C 19,7 C 12,9 km/h (3 Bft) 100,00 %
28.09.2016 17:28 19,9 C 66 % 1025,7 hPa 0,0 l/m 6,8 km/h (2 Bft) SW 232 2 min 0,000 mm 0,0 UV-I 154 W/m 13,4 C 19,7 C 14,5 km/h (3 Bft) 100,00 %
28.09.2016 17:30 19,9 C 66 % 1025,8 hPa 0,0 l/m 6,6 km/h (2 Bft) SW 236 2 min 0,000 mm 0,0 UV-I 147 W/m 13,4 C 19,8 C 12,9 km/h (3 Bft) 100,00 %
28.09.2016 17:32 19,9 C 66 % 1025,9 hPa 0,0 l/m 4,1 km/h (1 Bft) W-NW 296 2 min 0,000 mm 0,0 UV-I 133 W/m 13,4 C 19,9 C 6,4 km/h (2 Bft) 100,00 %
28.09.2016 17:34 19,8 C 68 % 1025,8 hPa 0,0 l/m 3,3 km/h (1 Bft) W-NW 282 2 min 0,000 mm 0,0 UV-I 126 W/m 13,7 C 19,8 C 8,0 km/h (2 Bft) 100,00 %
28.09.2016 17:36 19,8 C 67 % 1025,9 hPa 0,0 l/m 5,3 km/h (1 Bft) W 270 2 min 0,000 mm 0,0 UV-I 131 W/m 13,5 C 19,8 C 9,7 km/h (2 Bft) 97,87 %
28.09.2016 17:38 19,8 C 67 % 1025,8 hPa 0,0 l/m 5,9 km/h (2 Bft) W 263 2 min 0,000 mm 0,0 UV-I 135 W/m 13,5 C 19,8 C 11,3 km/h (2 Bft) 100,00 %
28.09.2016 17:40 19,8 C 68 % 1025,8 hPa 0,0 l/m 6,5 km/h (2 Bft) W-NW 290 2 min 0,000 mm 0,0 UV-I 141 W/m 13,7 C 19,8 C 11,3 km/h (2 Bft) 100,00 %
28.09.2016 17:42 19,7 C 68 % 1025,9 hPa 0,0 l/m 3,4 km/h (1 Bft) W-SW 246 2 min 0,000 mm 0,0 UV-I 146 W/m 13,6 C 19,7 C 9,7 km/h (2 Bft) 100,00 %
28.09.2016 17:44 19,7 C 68 % 1025,8 hPa 0,0 l/m 4,1 km/h (1 Bft) W-SW 251 2 min 0,000 mm 0,0 UV-I 158 W/m 13,6 C 19,7 C 6,4 km/h (2 Bft) 97,87 %
28.09.2016 17:46 19,7 C 69 % 1025,8 hPa 0,0 l/m 5,5 km/h (1 Bft) W-NW 295 2 min 0,000 mm 0,0 UV-I 161 W/m 13,8 C 19,7 C 11,3 km/h (2 Bft) 100,00 %
28.09.2016 17:48 19,8 C 69 % 1025,8 hPa 0,0 l/m 4,6 km/h (1 Bft) W-SW 253 2 min 0,000 mm 0,0 UV-I 133 W/m 13,9 C 19,8 C 9,7 km/h (2 Bft) 100,00 %
28.09.2016 17:50 19,8 C 68 % 1025,8 hPa 0,0 l/m 6,8 km/h (2 Bft) W 267 2 min 0,000 mm 0,0 UV-I 117 W/m 13,7 C 19,6 C 12,9 km/h (3 Bft) 97,92 %
28.09.2016 17:52 19,8 C 68 % 1025,8 hPa 0,0 l/m 4,1 km/h (1 Bft) W-NW 292 2 min 0,000 mm 0,0 UV-I 110 W/m 13,7 C 19,8 C 6,4 km/h (2 Bft) 97,87 %
28.09.2016 17:54 19,7 C 68 % 1025,8 hPa 0,0 l/m 3,9 km/h (1 Bft) W 263 2 min 0,000 mm 0,0 UV-I 91 W/m 13,6 C 19,7 C 6,4 km/h (2 Bft) 100,00 %
28.09.2016 17:56 19,7 C 69 % 1025,8 hPa 0,0 l/m 4,8 km/h (1 Bft) W-NW 293 2 min 0,000 mm 0,0 UV-I 81 W/m 13,8 C 19,7 C 11,3 km/h (2 Bft) 100,00 %
28.09.2016 17:58 19,6 C 69 % 1025,8 hPa 0,0 l/m 4,9 km/h (1 Bft) W 259 2 min 0,000 mm 0,0 UV-I 75 W/m 13,8 C 19,6 C 9,7 km/h (2 Bft) 95,74 %
28.09.2016 18:00 19,6 C 69 % 1025,8 hPa 0,0 l/m 5,8 km/h (2 Bft) W 268 2 min 0,000 mm 0,0 UV-I 74 W/m 13,8 C 19,6 C 11,3 km/h (2 Bft) 100,00 %
28.09.2016 18:02 19,5 C 69 % 1025,9 hPa 0,0 l/m 4,0 km/h (1 Bft) W 261 2 min 0,101 mm 0,0 UV-I 81 W/m 13,7 C 19,5 C 6,4 km/h (2 Bft) 100,00 %
28.09.2016 18:04 19,4 C 70 % 1025,9 hPa 0,0 l/m 3,4 km/h (1 Bft) W 260 2 min 0,000 mm 0,0 UV-I 70 W/m 13,8 C 19,4 C 4,8 km/h (1 Bft) 100,00 %
28.09.2016 18:06 19,3 C 70 % 1025,9 hPa 0,0 l/m 2,5 km/h (1 Bft) W-SW 247 0 min 0,000 mm 0,0 UV-I 59 W/m 13,7 C 19,3 C 4,8 km/h (1 Bft) 98,00 %
28.09.2016 18:08 19,3 C 71 % 1025,9 hPa 0,0 l/m 3,4 km/h (1 Bft) W-NW 291 0 min 0,000 mm 0,0 UV-I 51 W/m 13,9 C 19,3 C 9,7 km/h (2 Bft) 97,14 %
28.09.2016 18:10 19,1 C 71 % 1026,0 hPa 0,0 l/m 2,8 km/h (1 Bft) W-NW 294 0 min 0,000 mm 0,0 UV-I 46 W/m 13,7 C 19,1 C 4,8 km/h (1 Bft) 98,00 %
28.09.2016 18:12 19,1 C 72 % 1025,9 hPa 0,0 l/m 2,8 km/h (1 Bft) W-NW 294 0 min 0,000 mm 0,0 UV-I 41 W/m 13,9 C 19,1 C 4,8 km/h (1 Bft) 100,00 %
28.09.2016 18:14 18,9 C 72 % 1026,0 hPa 0,0 l/m 3,0 km/h (1 Bft) W 275 0 min 0,000 mm 0,0 UV-I 37 W/m 13,7 C 18,9 C 6,4 km/h (2 Bft) 100,00 %
28.09.2016 18:16 18,8 C 73 % 1025,9 hPa 0,0 l/m 3,8 km/h (1 Bft) W 275 0 min 0,000 mm 0,0 UV-I 33 W/m 13,9 C 18,8 C 6,4 km/h (2 Bft) 97,87 %
28.09.2016 18:18 18,8 C 73 % 1025,9 hPa 0,0 l/m 3,1 km/h (1 Bft) W 275 0 min 0,000 mm 0,0 UV-I 30 W/m 13,9 C 18,8 C 4,8 km/h (1 Bft) 95,74 %
28.09.2016 18:20 18,7 C 73 % 1025,9 hPa 0,0 l/m 3,1 km/h (1 Bft) W 275 0 min 0,000 mm 0,0 UV-I 26 W/m 13,8 C 18,7 C 4,8 km/h (1 Bft) 100,00 %
28.09.2016 18:22 18,6 C 73 % 1025,9 hPa 0,0 l/m 2,8 km/h (1 Bft) W 275 0 min 0,000 mm 0,0 UV-I 25 W/m 13,7 C 18,6 C 4,8 km/h (1 Bft) 100,00 %
28.09.2016 18:24 18,6 C 74 % 1025,9 hPa 0,0 l/m 2,8 km/h (1 Bft) W 275 0 min 0,000 mm 0,0 UV-I 23 W/m 13,9 C 18,6 C 4,8 km/h (1 Bft) 97,87 %
28.09.2016 18:26 18,5 C 74 % 1025,9 hPa 0,0 l/m 3,2 km/h (1 Bft) W 275 0 min 0,000 mm 0,0 UV-I 20 W/m 13,8 C 18,5 C 4,8 km/h (1 Bft) 97,87 %
28.09.2016 18:28 18,4 C 74 % 1026,0 hPa 0,0 l/m 3,0 km/h (1 Bft) W 275 0 min 0,000 mm 0,0 UV-I 19 W/m 13,7 C 18,4 C 3,2 km/h (1 Bft) 97,22 %
28.09.2016 18:30 18,4 C 74 % 1025,9 hPa 0,0 l/m 3,3 km/h (1 Bft) W 275 0 min 0,000 mm 0,0 UV-I 17 W/m 13,7 C 18,4 C 4,8 km/h (1 Bft) 98,00 %
28.09.2016 18:32 18,3 C 75 % 1025,9 hPa 0,0 l/m 2,4 km/h (1 Bft) W 275 0 min 0,000 mm 0,0 UV-I 14 W/m 13,8 C 18,3 C 3,2 km/h (1 Bft) 95,74 %
28.09.2016 18:34 18,3 C 75 % 1025,9 hPa 0,0 l/m 2,4 km/h (1 Bft) W 275 0 min 0,000 mm 0,0 UV-I 12 W/m 13,8 C 18,3 C 3,2 km/h (1 Bft) 93,62 %
28.09.2016 18:36 18,2 C 75 % 1025,9 hPa 0,0 l/m 3,4 km/h (1 Bft) W 275 0 min 0,000 mm 0,0 UV-I 11 W/m 13,7 C 18,2 C 4,8 km/h (1 Bft) 93,62 %
28.09.2016 18:38 18,1 C 76 % 1025,9 hPa 0,0 l/m 2,1 km/h (1 Bft) W 275 2 min 0,000 mm 0,0 UV-I 9 W/m 13,8 C 18,1 C 3,2 km/h (1 Bft) 97,87 %
28.09.2016 18:40 18,1 C 76 % 1025,9 hPa 0,0 l/m 1,8 km/h (1 Bft) W 275 0 min 0,000 mm 0,0 UV-I 7 W/m 13,8 C 18,1 C 3,2 km/h (1 Bft) 95,74 %
28.09.2016 18:42 18,0 C 76 % 1025,9 hPa 0,0 l/m 2,8 km/h (1 Bft) W 275 0 min 0,000 mm 0,0 UV-I 6 W/m 13,7 C 18,0 C 3,2 km/h (1 Bft) 98,00 %
28.09.2016 18:44 17,8 C 77 % 1025,9 hPa 0,0 l/m 3,0 km/h (1 Bft) W 275 0 min 0,000 mm 0,0 UV-I 5 W/m 13,7 C 17,8 C 4,8 km/h (1 Bft) 95,74 %
28.09.2016 18:46 17,8 C 78 % 1025,9 hPa 0,0 l/m 2,8 km/h (1 Bft) W 275 0 min 0,000 mm 0,0 UV-I 0 W/m 13,9 C 17,8 C 4,8 km/h (1 Bft) 95,74 %
28.09.2016 18:48 17,7 C 78 % 1025,9 hPa 0,0 l/m 3,1 km/h (1 Bft) W 275 0 min 0,000 mm 0,0 UV-I 0 W/m 13,8 C 17,7 C 4,8 km/h (1 Bft) 95,74 %
28.09.2016 18:50 17,6 C 78 % 1025,9 hPa 0,0 l/m 2,6 km/h (1 Bft) W 275 0 min 0,000 mm 0,0 UV-I 0 W/m 13,7 C 17,6 C 3,2 km/h (1 Bft) 95,74 %
28.09.2016 18:52 17,6 C 78 % 1025,9 hPa 0,0 l/m 2,1 km/h (1 Bft) W 275 0 min 0,000 mm 0,0 UV-I 0 W/m 13,7 C 17,6 C 3,2 km/h (1 Bft) 93,62 %
28.09.2016 18:54 17,4 C 78 % 1025,9 hPa 0,0 l/m 1,6 km/h (1 Bft) W 275 0 min 0,000 mm 0,0 UV-I 0 W/m 13,5 C 17,4 C 3,2 km/h (1 Bft) 97,87 %
28.09.2016 18:56 17,3 C 78 % 1026,0 hPa 0,0 l/m 1,0 km/h (0 Bft) W 275 0 min 0,000 mm 0,0 UV-I 0 W/m 13,4 C 17,3 C 1,6 km/h (1 Bft) 97,87 %
28.09.2016 18:58 17,2 C 79 % 1026,0 hPa 0,0 l/m 0,3 km/h (0 Bft) W 275 0 min 0,000 mm 0,0 UV-I 0 W/m 13,5 C 17,2 C 1,6 km/h (1 Bft) 97,87 %
28.09.2016 19:00 16,9 C 80 % 1026,0 hPa 0,0 l/m 1,2 km/h (1 Bft) W 275 0 min 0,026 mm 0,0 UV-I 0 W/m 13,4 C 16,9 C 1,6 km/h (1 Bft) 100,00 %
28.09.2016 19:02 16,8 C 80 % 1026,0 hPa 0,0 l/m 2,0 km/h (1 Bft) W 275 0 min 0,000 mm 0,0 UV-I 0 W/m 13,3 C 16,8 C 3,2 km/h (1 Bft) 100,00 %
28.09.2016 19:04 16,6 C 81 % 1026,1 hPa 0,0 l/m 1,2 km/h (1 Bft) W 275 0 min 0,000 mm 0,0 UV-I 0 W/m 13,3 C 16,6 C 1,6 km/h (1 Bft) 97,92 %
28.09.2016 19:06 16,4 C 82 % 1026,1 hPa 0,0 l/m 0,8 km/h (0 Bft) W 275 0 min 0,000 mm 0,0 UV-I 0 W/m 13,3 C 16,4 C 3,2 km/h (1 Bft) 100,00 %
28.09.2016 19:08 16,3 C 82 % 1026,1 hPa 0,0 l/m 0,7 km/h (0 Bft) W 275 0 min 0,000 mm 0,0 UV-I 0 W/m 13,2 C 16,3 C 1,6 km/h (1 Bft) 100,00 %
28.09.2016 19:10 16,1 C 83 % 1026,1 hPa 0,0 l/m 1,1 km/h (1 Bft) W 275 0 min 0,000 mm 0,0 UV-I 0 W/m 13,2 C 16,1 C 3,2 km/h (1 Bft) 97,87 %
28.09.2016 19:12 16,0 C 84 % 1026,1 hPa 0,0 l/m 1,0 km/h (0 Bft) W 275 0 min 0,000 mm 0,0 UV-I 0 W/m 13,3 C 16,0 C 1,6 km/h (1 Bft) 100,00 %
28.09.2016 19:14 15,9 C 84 % 1026,1 hPa 0,0 l/m 0,6 km/h (0 Bft) W 274 0 min 0,000 mm 0,0 UV-I 0 W/m 13,2 C 15,9 C 1,6 km/h (1 Bft) 100,00 %
28.09.2016 19:16 15,8 C 84 % 1026,1 hPa 0,0 l/m 1,0 km/h (0 Bft) W-SW 250 0 min 0,000 mm 0,0 UV-I 0 W/m 13,1 C 15,8 C 3,2 km/h (1 Bft) 100,00 %
28.09.2016 19:18 15,8 C 84 % 1026,1 hPa 0,0 l/m 1,0 km/h (0 Bft) W-SW 248 0 min 0,000 mm 0,0 UV-I 0 W/m 13,1 C 15,8 C 3,2 km/h (1 Bft) 97,87 %
28.09.2016 19:20 15,8 C 84 % 1026,1 hPa 0,0 l/m 1,1 km/h (1 Bft) W-SW 248 0 min 0,000 mm 0,0 UV-I 0 W/m 13,1 C 15,8 C 3,2 km/h (1 Bft) 100,00 %
28.09.2016 19:22 15,8 C 84 % 1026,1 hPa 0,0 l/m 0,7 km/h (0 Bft) W-SW 248 0 min 0,000 mm 0,0 UV-I 0 W/m 13,1 C 15,8 C 1,6 km/h (1 Bft) 97,87 %
28.09.2016 19:24 15,8 C 84 % 1026,1 hPa 0,0 l/m 1,2 km/h (1 Bft) W-SW 248 0 min 0,000 mm 0,0 UV-I 0 W/m 13,1 C 15,8 C 1,6 km/h (1 Bft) 95,74 %
28.09.2016 19:26 15,8 C 84 % 1026,1 hPa 0,0 l/m 1,1 km/h (1 Bft) W-SW 248 0 min 0,000 mm 0,0 UV-I 0 W/m 13,1 C 15,8 C 3,2 km/h (1 Bft) 98,00 %
28.09.2016 19:28 15,8 C 84 % 1026,1 hPa 0,0 l/m 1,4 km/h (1 Bft) W-SW 246 0 min 0,000 mm 0,0 UV-I 0 W/m 13,1 C 15,8 C 3,2 km/h (1 Bft) 100,00 %
28.09.2016 19:30 15,8 C 84 % 1026,1 hPa 0,0 l/m 0,8 km/h (0 Bft) W-SW 246 0 min 0,000 mm 0,0 UV-I 0 W/m 13,1 C 15,8 C 1,6 km/h (1 Bft) 100,00 %
28.09.2016 19:32 15,8 C 84 % 1026,1 hPa 0,0 l/m 0,8 km/h (0 Bft) W-SW 246 0 min 0,000 mm 0,0 UV-I 0 W/m 13,1 C 15,8 C 1,6 km/h (1 Bft) 95,74 %
28.09.2016 19:34 15,7 C 84 % 1026,2 hPa 0,0 l/m 0,2 km/h (0 Bft) W-SW 246 0 min 0,000 mm 0,0 UV-I 0 W/m 13,0 C 15,7 C 1,6 km/h (1 Bft) 100,00 %
28.09.2016 19:36 15,7 C 84 % 1026,2 hPa 0,0 l/m 0,0 km/h (0 Bft) W-SW 246 0 min 0,000 mm 0,0 UV-I 0 W/m 13,0 C 15,7 C 0,0 km/h (0 Bft) 97,87 %
28.09.2016 19:38 15,7 C 85 % 1026,2 hPa 0,0 l/m 0,7 km/h (0 Bft) W-SW 246 0 min 0,000 mm 0,0 UV-I 0 W/m 13,2 C 15,7 C 3,2 km/h (1 Bft) 97,87 %
28.09.2016 19:40 15,6 C 85 % 1026,2 hPa 0,0 l/m 0,9 km/h (0 Bft) W-SW 246 0 min 0,000 mm 0,0 UV-I 0 W/m 13,1 C 15,6 C 3,2 km/h (1 Bft) 100,00 %
28.09.2016 19:42 15,6 C 85 % 1026,2 hPa 0,0 l/m 0,6 km/h (0 Bft) W-SW 246 0 min 0,000 mm 0,0 UV-I 0 W/m 13,1 C 15,6 C 1,6 km/h (1 Bft) 100,00 %
28.09.2016 19:44 15,5 C 85 % 1026,2 hPa 0,0 l/m 1,8 km/h (1 Bft) W-SW 246 0 min 0,000 mm 0,0 UV-I 0 W/m 13,0 C 15,5 C 3,2 km/h (1 Bft) 100,00 %
28.09.2016 19:46 15,4 C 85 % 1026,3 hPa 0,0 l/m 2,1 km/h (1 Bft) W-SW 246 0 min 0,000 mm 0,0 UV-I 0 W/m 12,9 C 15,4 C 3,2 km/h (1 Bft) 100,00 %
28.09.2016 19:48 15,4 C 85 % 1026,3 hPa 0,0 l/m 2,2 km/h (1 Bft) W-SW 246 0 min 0,000 mm 0,0 UV-I 0 W/m 12,9 C 15,4 C 3,2 km/h (1 Bft) 97,87 %
28.09.2016 19:50 15,4 C 85 % 1026,2 hPa 0,0 l/m 2,2 km/h (1 Bft) W-SW 246 0 min 0,000 mm 0,0 UV-I 0 W/m 12,9 C 15,4 C 3,2 km/h (1 Bft) 100,00 %
28.09.2016 19:52 15,3 C 86 % 1026,3 hPa 0,0 l/m 1,5 km/h (1 Bft) W-SW 246 0 min 0,000 mm 0,0 UV-I 0 W/m 13,0 C 15,3 C 3,2 km/h (1 Bft) 97,87 %
28.09.2016 19:54 15,3 C 86 % 1026,2 hPa 0,0 l/m 1,5 km/h (1 Bft) W-SW 246 0 min 0,000 mm 0,0 UV-I 0 W/m 13,0 C 15,3 C 3,2 km/h (1 Bft) 100,00 %
28.09.2016 19:56 15,2 C 86 % 1026,2 hPa 0,0 l/m 0,6 km/h (0 Bft) W-SW 246 0 min 0,000 mm 0,0 UV-I 0 W/m 12,9 C 15,2 C 1,6 km/h (1 Bft) 100,00 %
28.09.2016 19:58 15,1 C 86 % 1026,3 hPa 0,0 l/m 1,0 km/h (0 Bft) W-SW 246 0 min 0,000 mm 0,0 UV-I 0 W/m 12,8 C 15,1 C 1,6 km/h (1 Bft) 97,87 %
28.09.2016 20:00 15,1 C 87 % 1026,3 hPa 0,0 l/m 1,6 km/h (1 Bft) W-SW 246 0 min 0,000 mm 0,0 UV-I 0 W/m 13,0 C 15,1 C 3,2 km/h (1 Bft) 100,00 %
28.09.2016 20:03 15,1 C 87 % 1026,3 hPa 0,0 l/m 1,3 km/h (1 Bft) W-SW 246 0 min 0,000 mm 0,0 UV-I 0 W/m 13,0 C 15,1 C 3,2 km/h (1 Bft) 95,71 %
28.09.2016 20:04 15,1 C 87 % 1026,3 hPa 0,0 l/m 1,5 km/h (1 Bft) W-SW 246 0 min 0,000 mm 0,0 UV-I 0 W/m 13,0 C 15,1 C 3,2 km/h (1 Bft) 100,00 %
28.09.2016 20:06 15,1 C 87 % 1026,3 hPa 0,0 l/m 0,5 km/h (0 Bft) W-SW 246 0 min 0,000 mm 0,0 UV-I 0 W/m 13,0 C 15,1 C 3,2 km/h (1 Bft) 100,00 %
28.09.2016 20:08 15,0 C 87 % 1026,3 hPa 0,0 l/m 1,4 km/h (1 Bft) W-SW 246 0 min 0,000 mm 0,0 UV-I 0 W/m 12,9 C 15,0 C 3,2 km/h (1 Bft) 97,37 %
28.09.2016 20:10 14,9 C 87 % 1026,4 hPa 0,0 l/m 1,9 km/h (1 Bft) W-SW 246 0 min 0,000 mm 0,0 UV-I 0 W/m 12,8 C 14,9 C 3,2 km/h (1 Bft) 100,00 %
28.09.2016 20:12 14,9 C 88 % 1026,5 hPa 0,0 l/m 1,7 km/h (1 Bft) W-SW 246 0 min 0,000 mm 0,0 UV-I 0 W/m 12,9 C 14,9 C 3,2 km/h (1 Bft) 98,39 %
28.09.2016 20:14 14,8 C 88 % 1026,5 hPa 0,0 l/m 1,6 km/h (1 Bft) W-SW 246 0 min 0,000 mm 0,0 UV-I 0 W/m 12,8 C 14,8 C 3,2 km/h (1 Bft) 97,87 %
28.09.2016 20:16 14,8 C 88 % 1026,5 hPa 0,0 l/m 1,3 km/h (1 Bft) W-SW 246 0 min 0,000 mm 0,0 UV-I 0 W/m 12,8 C 14,8 C 3,2 km/h (1 Bft) 100,00 %
28.09.2016 20:18 14,8 C 88 % 1026,5 hPa 0,0 l/m 1,1 km/h (1 Bft) W-SW 246 0 min 0,000 mm 0,0 UV-I 0 W/m 12,8 C 14,8 C 3,2 km/h (1 Bft) 97,87 %
28.09.2016 20:20 14,8 C 89 % 1026,5 hPa 0,0 l/m 2,5 km/h (1 Bft) SW 236 0 min 0,000 mm 0,0 UV-I 0 W/m 13,0 C 14,8 C 4,8 km/h (1 Bft) 98,04 %
28.09.2016 20:22 14,8 C 88 % 1026,4 hPa 0,0 l/m 2,4 km/h (1 Bft) SW 234 0 min 0,000 mm 0,0 UV-I 0 W/m 12,8 C 14,8 C 4,8 km/h (1 Bft) 97,22 %
28.09.2016 20:24 14,9 C 88 % 1026,4 hPa 0,0 l/m 2,7 km/h (1 Bft) S-SW 213 0 min 0,000 mm 0,0 UV-I 0 W/m 12,9 C 14,9 C 4,8 km/h (1 Bft) 100,00 %
28.09.2016 20:26 14,9 C 88 % 1026,4 hPa 0,0 l/m 3,2 km/h (1 Bft) S-SW 200 0 min 0,000 mm 0,0 UV-I 0 W/m 12,9 C 14,9 C 4,8 km/h (1 Bft) 100,00 %
28.09.2016 20:28 15,1 C 88 % 1026,4 hPa 0,0 l/m 3,3 km/h (1 Bft) S 191 0 min 0,000 mm 0,0 UV-I 0 W/m 13,1 C 15,1 C 4,8 km/h (1 Bft) 96,00 %
28.09.2016 20:30 15,1 C 88 % 1026,4 hPa 0,0 l/m 3,9 km/h (1 Bft) S 191 0 min 0,000 mm 0,0 UV-I 0 W/m 13,1 C 15,1 C 4,8 km/h (1 Bft) 95,74 %
28.09.2016 20:32 15,2 C 88 % 1026,4 hPa 0,0 l/m 5,0 km/h (1 Bft) S 190 0 min 0,000 mm 0,0 UV-I 0 W/m 13,2 C 15,2 C 6,4 km/h (2 Bft) 93,62 %
28.09.2016 20:34 15,2 C 87 % 1026,3 hPa 0,0 l/m 4,9 km/h (1 Bft) S 188 0 min 0,000 mm 0,0 UV-I 0 W/m 13,0 C 15,2 C 6,4 km/h (2 Bft) 97,87 %
28.09.2016 20:36 15,2 C 88 % 1026,4 hPa 0,0 l/m 5,2 km/h (1 Bft) S-SW 196 0 min 0,000 mm 0,0 UV-I 0 W/m 13,2 C 15,2 C 8,0 km/h (2 Bft) 95,74 %
28.09.2016 20:38 15,2 C 88 % 1026,4 hPa 0,0 l/m 5,1 km/h (1 Bft) S 187 0 min 0,000 mm 0,0 UV-I 0 W/m 13,2 C 15,2 C 6,4 km/h (2 Bft) 97,87 %
28.09.2016 20:40 15,2 C 88 % 1026,4 hPa 0,0 l/m 4,6 km/h (1 Bft) S-SW 204 0 min 0,000 mm 0,0 UV-I 0 W/m 13,2 C 15,2 C 6,4 km/h (2 Bft) 97,87 %
28.09.2016 20:42 15,1 C 88 % 1026,5 hPa 0,0 l/m 5,3 km/h (1 Bft) S-SW 210 0 min 0,000 mm 0,0 UV-I 0 W/m 13,1 C 15,1 C 6,4 km/h (2 Bft) 97,87 %
28.09.2016 20:44 15,1 C 88 % 1026,4 hPa 0,0 l/m 5,3 km/h (1 Bft) S-SW 211 0 min 0,000 mm 0,0 UV-I 0 W/m 13,1 C 15,1 C 8,0 km/h (2 Bft) 97,87 %
28.09.2016 20:46 14,9 C 88 % 1026,4 hPa 0,0 l/m 4,8 km/h (1 Bft) S-SW 211 0 min 0,000 mm 0,0 UV-I 0 W/m 12,9 C 14,9 C 6,4 km/h (2 Bft) 97,87 %
28.09.2016 20:48 14,9 C 88 % 1026,4 hPa 0,0 l/m 5,8 km/h (2 Bft) S-SW 210 0 min 0,000 mm 0,0 UV-I 0 W/m 12,9 C 14,9 C 8,0 km/h (2 Bft) 93,62 %
28.09.2016 20:50 14,8 C 88 % 1026,4 hPa 0,0 l/m 5,5 km/h (1 Bft) S-SW 207 0 min 0,000 mm 0,0 UV-I 0 W/m 12,8 C 14,8 C 8,0 km/h (2 Bft) 95,74 %
28.09.2016 20:52 14,7 C 88 % 1026,4 hPa 0,0 l/m 5,7 km/h (1 Bft) S 183 0 min 0,000 mm 0,0 UV-I 0 W/m 12,7 C 14,7 C 8,0 km/h (2 Bft) 95,74 %
28.09.2016 20:54 14,8 C 88 % 1026,4 hPa 0,0 l/m 4,7 km/h (1 Bft) S-SW 203 0 min 0,000 mm 0,0 UV-I 0 W/m 12,8 C 14,8 C 6,4 km/h (2 Bft) 97,87 %
28.09.2016 20:56 14,8 C 88 % 1026,4 hPa 0,0 l/m 4,8 km/h (1 Bft) S-SW 203 0 min 0,000 mm 0,0 UV-I 0 W/m 12,8 C 14,8 C 6,4 km/h (2 Bft) 93,62 %
28.09.2016 20:58 14,8 C 88 % 1026,4 hPa 0,0 l/m 5,4 km/h (1 Bft) S-SW 209 0 min 0,000 mm 0,0 UV-I 0 W/m 12,8 C 14,8 C 8,0 km/h (2 Bft) 97,87 %
28.09.2016 21:00 14,9 C 88 % 1026,5 hPa 0,0 l/m 4,8 km/h (1 Bft) S-SW 213 0 min 0,000 mm 0,0 UV-I 0 W/m 12,9 C 14,9 C 6,4 km/h (2 Bft) 97,22 %
28.09.2016 21:02 14,9 C 88 % 1026,5 hPa 0,0 l/m 4,0 km/h (1 Bft) S-SW 213 0 min 0,000 mm 0,0 UV-I 0 W/m 12,9 C 14,9 C 6,4 km/h (2 Bft) 100,00 %
28.09.2016 21:04 14,9 C 88 % 1026,5 hPa 0,0 l/m 4,8 km/h (1 Bft) S-SW 212 0 min 0,000 mm 0,0 UV-I 0 W/m 12,9 C 14,9 C 6,4 km/h (2 Bft) 95,74 %
28.09.2016 21:06 14,9 C 88 % 1026,5 hPa 0,0 l/m 4,1 km/h (1 Bft) S-SW 212 0 min 0,000 mm 0,0 UV-I 0 W/m 12,9 C 14,9 C 6,4 km/h (2 Bft) 100,00 %
28.09.2016 21:08 14,8 C 88 % 1026,6 hPa 0,0 l/m 4,5 km/h (1 Bft) S-SW 210 0 min 0,000 mm 0,0 UV-I 0 W/m 12,8 C 14,8 C 6,4 km/h (2 Bft) 100,00 %
28.09.2016 21:10 14,8 C 88 % 1026,5 hPa 0,0 l/m 5,6 km/h (1 Bft) S-SW 209 0 min 0,000 mm 0,0 UV-I 0 W/m 12,8 C 14,8 C 9,7 km/h (2 Bft) 100,00 %
28.09.2016 21:12 14,7 C 88 % 1026,5 hPa 0,0 l/m 6,5 km/h (2 Bft) S-SW 213 0 min 0,000 mm 0,0 UV-I 0 W/m 12,7 C 14,7 C 9,7 km/h (2 Bft) 97,87 %
28.09.2016 21:14 14,7 C 88 % 1026,5 hPa 0,0 l/m 5,9 km/h (2 Bft) SW 220 0 min 0,000 mm 0,0 UV-I 0 W/m 12,7 C 14,7 C 8,0 km/h (2 Bft) 100,00 %
28.09.2016 21:16 14,7 C 88 % 1026,6 hPa 0,0 l/m 6,1 km/h (2 Bft) SW 215 0 min 0,000 mm 0,0 UV-I 0 W/m 12,7 C 14,7 C 8,0 km/h (2 Bft) 100,00 %
28.09.2016 21:18 14,8 C 89 % 1026,5 hPa 0,0 l/m 6,3 km/h (2 Bft) S-SW 208 0 min 0,000 mm 0,0 UV-I 0 W/m 13,0 C 14,8 C 8,0 km/h (2 Bft) 100,00 %
28.09.2016 21:20 14,8 C 88 % 1026,5 hPa 0,0 l/m 6,7 km/h (2 Bft) S-SW 211 0 min 0,000 mm 0,0 UV-I 0 W/m 12,8 C 14,6 C 9,7 km/h (2 Bft) 100,00 %
28.09.2016 21:22 14,9 C 88 % 1026,4 hPa 0,0 l/m 7,2 km/h (2 Bft) S-SW 209 0 min 0,000 mm 0,0 UV-I 0 W/m 12,9 C 14,4 C 9,7 km/h (2 Bft) 100,00 %
28.09.2016 21:24 15,0 C 88 % 1026,4 hPa 0,0 l/m 6,1 km/h (2 Bft) SW 223 0 min 0,000 mm 0,0 UV-I 0 W/m 13,0 C 15,0 C 8,0 km/h (2 Bft) 100,00 %
28.09.2016 21:26 15,1 C 88 % 1026,4 hPa 0,0 l/m 7,5 km/h (2 Bft) SW 236 0 min 0,000 mm 0,0 UV-I 0 W/m 13,1 C 14,5 C 9,7 km/h (2 Bft) 100,00 %
28.09.2016 21:28 15,0 C 88 % 1026,4 hPa 0,0 l/m 6,7 km/h (2 Bft) SW 223 0 min 0,000 mm 0,0 UV-I 0 W/m 13,0 C 14,8 C 9,7 km/h (2 Bft) 100,00 %
28.09.2016 21:30 15,0 C 88 % 1026,4 hPa 0,0 l/m 7,1 km/h (2 Bft) SW 223 0 min 0,000 mm 0,0 UV-I 0 W/m 13,0 C 14,6 C 11,3 km/h (2 Bft) 100,00 %
28.09.2016 21:32 15,0 C 88 % 1026,4 hPa 0,0 l/m 7,6 km/h (2 Bft) SW 227 0 min 0,000 mm 0,0 UV-I 0 W/m 13,0 C 14,3 C 9,7 km/h (2 Bft) 100,00 %
28.09.2016 21:34 15,0 C 88 % 1026,4 hPa 0,0 l/m 6,9 km/h (2 Bft) S-SW 207 0 min 0,000 mm 0,0 UV-I 0 W/m 13,0 C 14,7 C 9,7 km/h (2 Bft) 100,00 %
28.09.2016 21:36 14,9 C 88 % 1026,4 hPa 0,0 l/m 7,1 km/h (2 Bft) W-SW 242 0 min 0,000 mm 0,0 UV-I 0 W/m 12,9 C 14,5 C 9,7 km/h (2 Bft) 97,87 %
28.09.2016 21:38 14,9 C 88 % 1026,4 hPa 0,0 l/m 6,9 km/h (2 Bft) W-SW 241 0 min 0,000 mm 0,0 UV-I 0 W/m 12,9 C 14,6 C 9,7 km/h (2 Bft) 97,87 %
28.09.2016 21:40 14,8 C 88 % 1026,4 hPa 0,0 l/m 8,0 km/h (2 Bft) SW 232 0 min 0,000 mm 0,0 UV-I 0 W/m 12,8 C 13,9 C 11,3 km/h (2 Bft) 100,00 %
28.09.2016 21:42 14,8 C 88 % 1026,4 hPa 0,0 l/m 7,5 km/h (2 Bft) W-SW 237 0 min 0,000 mm 0,0 UV-I 0 W/m 12,8 C 14,2 C 11,3 km/h (2 Bft) 100,00 %
28.09.2016 21:44 14,8 C 88 % 1026,4 hPa 0,0 l/m 7,5 km/h (2 Bft) SW 232 0 min 0,000 mm 0,0 UV-I 0 W/m 12,8 C 14,2 C 12,9 km/h (3 Bft) 100,00 %
28.09.2016 21:46 14,8 C 89 % 1026,4 hPa 0,0 l/m 7,2 km/h (2 Bft) SW 220 0 min 0,000 mm 0,0 UV-I 0 W/m 13,0 C 14,3 C 9,7 km/h (2 Bft) 100,00 %
28.09.2016 21:48 14,8 C 88 % 1026,4 hPa 0,0 l/m 7,5 km/h (2 Bft) SW 236 0 min 0,000 mm 0,0 UV-I 0 W/m 12,8 C 14,2 C 11,3 km/h (2 Bft) 100,00 %
28.09.2016 21:50 14,9 C 88 % 1026,4 hPa 0,0 l/m 8,0 km/h (2 Bft) SW 229 0 min 0,000 mm 0,0 UV-I 0 W/m 12,9 C 14,0 C 12,9 km/h (3 Bft) 97,87 %
28.09.2016 21:52 15,0 C 88 % 1026,3 hPa 0,0 l/m 9,4 km/h (2 Bft) W-SW 246 0 min 0,000 mm 0,0 UV-I 0 W/m 13,0 C 13,4 C 14,5 km/h (3 Bft) 100,00 %
28.09.2016 21:54 15,1 C 88 % 1026,3 hPa 0,0 l/m 8,7 km/h (2 Bft) SW 230 0 min 0,000 mm 0,0 UV-I 0 W/m 13,1 C 13,8 C 14,5 km/h (3 Bft) 100,00 %
28.09.2016 21:56 15,1 C 87 % 1026,4 hPa 0,0 l/m 9,5 km/h (2 Bft) SW 225 0 min 0,000 mm 0,0 UV-I 0 W/m 13,0 C 13,5 C 14,5 km/h (3 Bft) 100,00 %
28.09.2016 21:58 15,1 C 87 % 1026,3 hPa 0,0 l/m 9,8 km/h (2 Bft) W-SW 247 0 min 0,000 mm 0,0 UV-I 0 W/m 13,0 C 13,3 C 14,5 km/h (3 Bft) 97,87 %
28.09.2016 22:00 15,1 C 87 % 1026,3 hPa 0,0 l/m 8,8 km/h (2 Bft) SW 232 0 min 0,025 mm 0,0 UV-I 0 W/m 13,0 C 13,8 C 16,1 km/h (3 Bft) 97,87 %
28.09.2016 22:02 15,1 C 87 % 1026,3 hPa 0,0 l/m 9,7 km/h (2 Bft) W-SW 246 0 min 0,000 mm 0,0 UV-I 0 W/m 13,0 C 13,4 C 12,9 km/h (3 Bft) 100,00 %
28.09.2016 22:04 15,2 C 87 % 1026,4 hPa 0,0 l/m 10,4 km/h (2 Bft) S-SW 202 0 min 0,000 mm 0,0 UV-I 0 W/m 13,0 C 13,2 C 14,5 km/h (3 Bft) 97,87 %
28.09.2016 22:06 15,2 C 87 % 1026,4 hPa 0,0 l/m 11,5 km/h (2 Bft) W-SW 242 0 min 0,000 mm 0,0 UV-I 0 W/m 13,0 C 12,7 C 16,1 km/h (3 Bft) 100,00 %
28.09.2016 22:08 15,2 C 87 % 1026,4 hPa 0,0 l/m 10,7 km/h (2 Bft) W-SW 250 0 min 0,000 mm 0,0 UV-I 0 W/m 13,0 C 13,0 C 14,5 km/h (3 Bft) 97,87 %
28.09.2016 22:10 15,2 C 87 % 1026,4 hPa 0,0 l/m 11,7 km/h (2 Bft) SW 227 0 min 0,000 mm 0,0 UV-I 0 W/m 13,0 C 12,6 C 16,1 km/h (3 Bft) 100,00 %
28.09.2016 22:12 15,2 C 87 % 1026,4 hPa 0,0 l/m 12,3 km/h (3 Bft) SW 221 0 min 0,000 mm 0,0 UV-I 0 W/m 13,0 C 12,4 C 16,1 km/h (3 Bft) 100,00 %
28.09.2016 22:14 15,2 C 87 % 1026,4 hPa 0,0 l/m 11,2 km/h (2 Bft) SW 232 0 min 0,000 mm 0,0 UV-I 0 W/m 13,0 C 12,8 C 16,1 km/h (3 Bft) 97,87 %
28.09.2016 22:16 15,2 C 87 % 1026,4 hPa 0,0 l/m 12,7 km/h (3 Bft) SW 232 0 min 0,000 mm 0,0 UV-I 0 W/m 13,0 C 12,2 C 17,7 km/h (3 Bft) 97,87 %
28.09.2016 22:18 15,2 C 87 % 1026,4 hPa 0,0 l/m 13,1 km/h (3 Bft) SW 232 0 min 0,000 mm 0,0 UV-I 0 W/m 13,0 C 12,1 C 16,1 km/h (3 Bft) 100,00 %
28.09.2016 22:20 15,2 C 87 % 1026,5 hPa 0,0 l/m 12,5 km/h (3 Bft) SW 229 0 min 0,000 mm 0,0 UV-I 0 W/m 13,0 C 12,3 C 17,7 km/h (3 Bft) 98,11 %
28.09.2016 22:22 15,2 C 87 % 1026,5 hPa 0,0 l/m 13,3 km/h (3 Bft) SW 231 0 min 0,000 mm 0,0 UV-I 0 W/m 13,0 C 12,0 C 19,3 km/h (3 Bft) 97,87 %
28.09.2016 22:24 15,2 C 87 % 1026,5 hPa 0,0 l/m 12,7 km/h (3 Bft) SW 231 0 min 0,000 mm 0,0 UV-I 0 W/m 13,0 C 12,2 C 17,7 km/h (3 Bft) 100,00 %
28.09.2016 22:26 15,2 C 87 % 1026,5 hPa 0,0 l/m 13,1 km/h (3 Bft) SW 234 0 min 0,000 mm 0,0 UV-I 0 W/m 13,0 C 12,1 C 19,3 km/h (3 Bft) 100,00 %
28.09.2016 22:28 15,2 C 87 % 1026,5 hPa 0,0 l/m 12,9 km/h (3 Bft) SW 233 0 min 0,000 mm 0,0 UV-I 0 W/m 13,0 C 12,2 C 17,7 km/h (3 Bft) 93,62 %
28.09.2016 22:30 15,1 C 87 % 1026,4 hPa 0,0 l/m 9,5 km/h (2 Bft) SW 222 0 min 0,000 mm 0,0 UV-I 0 W/m 13,0 C 13,5 C 12,9 km/h (3 Bft) 100,00 %
28.09.2016 22:32 15,1 C 87 % 1026,5 hPa 0,0 l/m 10,2 km/h (2 Bft) SW 216 0 min 0,000 mm 0,0 UV-I 0 W/m 13,0 C 13,1 C 16,1 km/h (3 Bft) 95,74 %
28.09.2016 22:34 15,1 C 87 % 1026,5 hPa 0,0 l/m 11,7 km/h (2 Bft) W-SW 253 0 min 0,000 mm 0,0 UV-I 0 W/m 13,0 C 12,5 C 17,7 km/h (3 Bft) 100,00 %
28.09.2016 22:36 15,1 C 87 % 1026,5 hPa 0,0 l/m 9,8 km/h (2 Bft) S-SW 200 0 min 0,000 mm 0,0 UV-I 0 W/m 13,0 C 13,3 C 16,1 km/h (3 Bft) 95,74 %
28.09.2016 22:38 15,1 C 88 % 1026,4 hPa 0,0 l/m 10,2 km/h (2 Bft) W-SW 248 0 min 0,000 mm 0,0 UV-I 0 W/m 13,1 C 13,1 C 16,1 km/h (3 Bft) 95,74 %
28.09.2016 22:40 15,1 C 87 % 1026,5 hPa 0,0 l/m 11,9 km/h (2 Bft) SW 229 0 min 0,000 mm 0,0 UV-I 0 W/m 13,0 C 12,4 C 16,1 km/h (3 Bft) 97,87 %
28.09.2016 22:42 15,1 C 87 % 1026,4 hPa 0,0 l/m 10,2 km/h (2 Bft) W-SW 245 0 min 0,000 mm 0,0 UV-I 0 W/m 13,0 C 13,1 C 16,1 km/h (3 Bft) 97,87 %
28.09.2016 22:44 15,1 C 87 % 1026,4 hPa 0,0 l/m 9,7 km/h (2 Bft) SW 232 0 min 0,000 mm 0,0 UV-I 0 W/m 13,0 C 13,4 C 14,5 km/h (3 Bft) 97,87 %
28.09.2016 22:46 15,1 C 87 % 1026,4 hPa 0,0 l/m 9,5 km/h (2 Bft) SW 232 0 min 0,000 mm 0,0 UV-I 0 W/m 13,0 C 13,5 C 14,5 km/h (3 Bft) 95,74 %
28.09.2016 22:48 15,1 C 87 % 1026,4 hPa 0,0 l/m 9,8 km/h (2 Bft) SW 224 0 min 0,000 mm 0,0 UV-I 0 W/m 13,0 C 13,3 C 12,9 km/h (3 Bft) 97,87 %
28.09.2016 22:50 15,1 C 87 % 1026,4 hPa 0,0 l/m 9,7 km/h (2 Bft) W-SW 244 0 min 0,000 mm 0,0 UV-I 0 W/m 13,0 C 13,4 C 14,5 km/h (3 Bft) 97,87 %
28.09.2016 22:52 15,1 C 87 % 1026,4 hPa 0,0 l/m 8,9 km/h (2 Bft) SW 225 0 min 0,000 mm 0,0 UV-I 0 W/m 13,0 C 13,7 C 14,5 km/h (3 Bft) 95,74 %
28.09.2016 22:54 15,1 C 87 % 1026,4 hPa 0,0 l/m 10,9 km/h (2 Bft) SW 229 0 min 0,000 mm 0,0 UV-I 0 W/m 13,0 C 12,8 C 17,7 km/h (3 Bft) 98,00 %
28.09.2016 22:56 15,0 C 87 % 1026,3 hPa 0,0 l/m 10,4 km/h (2 Bft) SW 227 0 min 0,000 mm 0,0 UV-I 0 W/m 12,9 C 12,9 C 17,7 km/h (3 Bft) 95,74 %
28.09.2016 22:58 15,0 C 87 % 1026,4 hPa 0,0 l/m 11,8 km/h (2 Bft) SW 217 0 min 0,000 mm 0,0 UV-I 0 W/m 12,9 C 12,4 C 17,7 km/h (3 Bft) 97,87 %
28.09.2016 23:00 15,0 C 87 % 1026,4 hPa 0,0 l/m 11,1 km/h (2 Bft) S-SW 207 0 min 0,000 mm 0,0 UV-I 0 W/m 12,9 C 12,6 C 16,1 km/h (3 Bft) 97,87 %
28.09.2016 23:02 14,9 C 87 % 1026,4 hPa 0,0 l/m 10,8 km/h (2 Bft) S-SW 198 0 min 0,026 mm 0,0 UV-I 0 W/m 12,8 C 12,7 C 16,1 km/h (3 Bft) 95,74 %
28.09.2016 23:04 14,9 C 87 % 1026,4 hPa 0,0 l/m 12,5 km/h (3 Bft) SW 236 0 min 0,000 mm 0,0 UV-I 0 W/m 12,8 C 12,0 C 17,7 km/h (3 Bft) 97,92 %
28.09.2016 23:06 14,9 C 87 % 1026,4 hPa 0,0 l/m 11,7 km/h (2 Bft) W-SW 240 0 min 0,000 mm 0,0 UV-I 0 W/m 12,8 C 12,3 C 16,1 km/h (3 Bft) 97,87 %
28.09.2016 23:08 14,9 C 87 % 1026,5 hPa 0,0 l/m 12,3 km/h (3 Bft) W-SW 246 0 min 0,000 mm 0,0 UV-I 0 W/m 12,8 C 12,0 C 17,7 km/h (3 Bft) 97,56 %
28.09.2016 23:10 14,9 C 87 % 1026,4 hPa 0,0 l/m 10,9 km/h (2 Bft) S-SW 198 0 min 0,000 mm 0,0 UV-I 0 W/m 12,8 C 12,6 C 16,1 km/h (3 Bft) 97,87 %
28.09.2016 23:12 14,9 C 87 % 1026,4 hPa 0,0 l/m 9,8 km/h (2 Bft) SW 220 0 min 0,000 mm 0,0 UV-I 0 W/m 12,8 C 13,1 C 14,5 km/h (3 Bft) 100,00 %
28.09.2016 23:14 14,9 C 87 % 1026,4 hPa 0,0 l/m 10,6 km/h (2 Bft) SW 226 0 min 0,000 mm 0,0 UV-I 0 W/m 12,8 C 12,7 C 17,7 km/h (3 Bft) 100,00 %
28.09.2016 23:16 14,9 C 87 % 1026,4 hPa 0,0 l/m 12,3 km/h (3 Bft) S-SW 195 0 min 0,000 mm 0,0 UV-I 0 W/m 12,8 C 12,0 C 16,1 km/h (3 Bft) 98,00 %
28.09.2016 23:18 14,9 C 87 % 1026,4 hPa 0,0 l/m 10,7 km/h (2 Bft) SW 231 0 min 0,000 mm 0,0 UV-I 0 W/m 12,8 C 12,7 C 17,7 km/h (3 Bft) 97,87 %
28.09.2016 23:20 14,9 C 87 % 1026,5 hPa 0,0 l/m 11,0 km/h (2 Bft) W-SW 238 0 min 0,000 mm 0,0 UV-I 0 W/m 12,8 C 12,6 C 20,9 km/h (4 Bft) 100,00 %
28.09.2016 23:22 14,9 C 87 % 1026,5 hPa 0,0 l/m 13,0 km/h (3 Bft) SW 225 0 min 0,000 mm 0,0 UV-I 0 W/m 12,8 C 11,8 C 20,9 km/h (4 Bft) 96,00 %
28.09.2016 23:24 14,9 C 87 % 1026,5 hPa 0,0 l/m 12,1 km/h (2 Bft) W-SW 238 0 min 0,000 mm 0,0 UV-I 0 W/m 12,8 C 12,1 C 17,7 km/h (3 Bft) 100,00 %
28.09.2016 23:26 14,9 C 87 % 1026,5 hPa 0,0 l/m 12,2 km/h (2 Bft) S-SW 198 0 min 0,000 mm 0,0 UV-I 0 W/m 12,8 C 12,1 C 17,7 km/h (3 Bft) 97,87 %
28.09.2016 23:28 14,9 C 87 % 1026,5 hPa 0,0 l/m 10,8 km/h (2 Bft) SW 231 0 min 0,000 mm 0,0 UV-I 0 W/m 12,8 C 12,7 C 17,7 km/h (3 Bft) 100,00 %
28.09.2016 23:30 14,9 C 87 % 1026,5 hPa 0,0 l/m 13,8 km/h (3 Bft) SW 225 0 min 0,000 mm 0,0 UV-I 0 W/m 12,8 C 11,5 C 17,7 km/h (3 Bft) 100,00 %
28.09.2016 23:32 14,9 C 87 % 1026,5 hPa 0,0 l/m 12,7 km/h (3 Bft) SW 225 0 min 0,000 mm 0,0 UV-I 0 W/m 12,8 C 11,9 C 17,7 km/h (3 Bft) 100,00 %
28.09.2016 23:34 14,9 C 87 % 1026,5 hPa 0,0 l/m 10,7 km/h (2 Bft) S-SW 201 0 min 0,000 mm 0,0 UV-I 0 W/m 12,8 C 12,7 C 16,1 km/h (3 Bft) 100,00 %
28.09.2016 23:36 14,9 C 86 % 1026,5 hPa 0,0 l/m 12,7 km/h (3 Bft) SW 223 0 min 0,000 mm 0,0 UV-I 0 W/m 12,6 C 11,9 C 16,1 km/h (3 Bft) 98,00 %
28.09.2016 23:38 14,9 C 86 % 1026,5 hPa 0,0 l/m 10,6 km/h (2 Bft) SW 227 0 min 0,000 mm 0,0 UV-I 0 W/m 12,6 C 12,7 C 14,5 km/h (3 Bft) 100,00 %
28.09.2016 23:40 14,9 C 86 % 1026,5 hPa 0,0 l/m 12,8 km/h (3 Bft) SW 228 0 min 0,000 mm 0,0 UV-I 0 W/m 12,6 C 11,8 C 20,9 km/h (4 Bft) 100,00 %
28.09.2016 23:42 14,9 C 86 % 1026,5 hPa 0,0 l/m 12,3 km/h (3 Bft) SW 236 0 min 0,000 mm 0,0 UV-I 0 W/m 12,6 C 12,0 C 19,3 km/h (3 Bft) 100,00 %
28.09.2016 23:44 15,0 C 86 % 1026,4 hPa 0,0 l/m 11,6 km/h (2 Bft) W-SW 247 0 min 0,000 mm 0,0 UV-I 0 W/m 12,7 C 12,4 C 17,7 km/h (3 Bft) 100,00 %
28.09.2016 23:46 15,0 C 86 % 1026,4 hPa 0,0 l/m 11,8 km/h (2 Bft) SW 227 0 min 0,000 mm 0,0 UV-I 0 W/m 12,7 C 12,4 C 17,7 km/h (3 Bft) 100,00 %
28.09.2016 23:48 15,1 C 86 % 1026,4 hPa 0,0 l/m 12,2 km/h (2 Bft) W-SW 253 0 min 0,000 mm 0,0 UV-I 0 W/m 12,8 C 12,3 C 19,3 km/h (3 Bft) 100,00 %
28.09.2016 23:50 15,1 C 86 % 1026,4 hPa 0,0 l/m 12,1 km/h (2 Bft) SW 225 0 min 0,000 mm 0,0 UV-I 0 W/m 12,8 C 12,3 C 19,3 km/h (3 Bft) 100,00 %
28.09.2016 23:52 15,1 C 85 % 1026,3 hPa 0,0 l/m 11,0 km/h (2 Bft) SW 233 0 min 0,000 mm 0,0 UV-I 0 W/m 12,6 C 12,8 C 17,7 km/h (3 Bft) 100,00 %
28.09.2016 23:54 15,2 C 85 % 1026,3 hPa 0,0 l/m 11,7 km/h (2 Bft) W-SW 251 0 min 0,000 mm 0,0 UV-I 0 W/m 12,7 C 12,6 C 19,3 km/h (3 Bft) 100,00 %
28.09.2016 23:56 15,2 C 85 % 1026,3 hPa 0,0 l/m 11,9 km/h (2 Bft) S-SW 202 0 min 0,000 mm 0,0 UV-I 0 W/m 12,7 C 12,5 C 20,9 km/h (4 Bft) 100,00 %
28.09.2016 23:58 15,2 C 85 % 1026,4 hPa 0,0 l/m 11,1 km/h (2 Bft) S-SW 208 0 min 0,000 mm 0,0 UV-I 0 W/m 12,7 C 12,9 C 19,3 km/h (3 Bft) 100,00 %
_ Min-Zeit 07:18 14:56 16:34 - 01:38 - - - - - - 06:36 07:18 01:40 16:48
Minimum _ 7,5 C 60 % 1025,4 hPa - 0,0 km/h (0 Bft) - - - - - - 6,7 C 7,5 C 0,0 km/h (0 Bft) 92,00 %
_ Max-Zeit 15:34 07:42 10:44 00:00 23:30 - - 07:10 14:00 13:06 13:06 14:54 15:34 17:06 00:00
Maximum _ 21,9 C 96 % 1029,2 hPa 0,0 l/m 13,8 km/h
SW (3 Bft)
- - 2 min 0,355 mm 3,3 UV-I 687 W/m 14,4 C 21,9 C 22,5 km/h
W (4 Bft)
100,00 %
Durchschnitt _ 14,2 C 82 % 1027,2 hPa #0,0 l/m 3,9 km/h (1 Bft) W-SW - #9:04 h #2,261 mm 1,8 UV-I 310 W/m 11,1 C 14,0 C 6,8 km/h (2 Bft) 98,49 %